<?xml version="1.0" encoding="UTF-8" standalone="no" ?>
<gpx xmlns="http://www.topografix.com/GPX/1/1" xmlns:xsi="http://www.w3.org/2001/XMLSchema-instance" xsi:schemaLocation="http://www.topografix.com/GPX/1/1 http://www.topografix.com/GPX/1/1/gpx.xsd" version="1.1" creator="VisuGPX - https://www.visugpx.com">
  <metadata>
    <name>cap d\\\'adge - vias</name>
    <desc><![CDATA[ducap d\'adge a vias et retour, par voir cyclable aussi car le singlemanque un peu ds la regionntoutcomme les traces GPS]]></desc>
  </metadata>
  <trk>
    <name><![CDATA[(c) UtagawaVTT.com]]></name>
    <trkseg>
      <trkpt lat="43.28546" lon="3.49962">
        <ele>6</ele>
        <time>2010-09-03T19:50:42Z</time>
      </trkpt>
      <trkpt lat="43.28557" lon="3.49904">
        <ele>8</ele>
        <time>2010-09-03T19:50:42Z</time>
      </trkpt>
      <trkpt lat="43.2857" lon="3.49848">
        <ele>8</ele>
        <time>2010-09-03T19:50:42Z</time>
      </trkpt>
      <trkpt lat="43.28585" lon="3.49799">
        <ele>7</ele>
        <time>2010-09-03T19:50:42Z</time>
      </trkpt>
      <trkpt lat="43.28615" lon="3.49782">
        <ele>9</ele>
        <time>2010-09-03T19:50:42Z</time>
      </trkpt>
      <trkpt lat="43.2866" lon="3.49746">
        <ele>11</ele>
        <time>2010-09-03T19:50:42Z</time>
      </trkpt>
      <trkpt lat="43.28706" lon="3.49712">
        <ele>14</ele>
        <time>2010-09-03T19:50:42Z</time>
      </trkpt>
      <trkpt lat="43.2876" lon="3.49714">
        <ele>14</ele>
        <time>2010-09-03T19:50:42Z</time>
      </trkpt>
      <trkpt lat="43.28788" lon="3.49717">
        <ele>14</ele>
        <time>2010-09-03T19:50:42Z</time>
      </trkpt>
      <trkpt lat="43.28815" lon="3.49719">
        <ele>16</ele>
        <time>2010-09-03T19:50:42Z</time>
      </trkpt>
      <trkpt lat="43.28844" lon="3.49722">
        <ele>21</ele>
        <time>2010-09-03T19:50:42Z</time>
      </trkpt>
      <trkpt lat="43.28872" lon="3.49722">
        <ele>23</ele>
        <time>2010-09-03T19:50:42Z</time>
      </trkpt>
      <trkpt lat="43.289" lon="3.49724">
        <ele>25</ele>
        <time>2010-09-03T19:50:42Z</time>
      </trkpt>
      <trkpt lat="43.28927" lon="3.49717">
        <ele>26</ele>
        <time>2010-09-03T19:50:42Z</time>
      </trkpt>
      <trkpt lat="43.2898" lon="3.49692">
        <ele>34</ele>
        <time>2010-09-03T19:50:42Z</time>
      </trkpt>
      <trkpt lat="43.29006" lon="3.49681">
        <ele>33</ele>
        <time>2010-09-03T19:50:42Z</time>
      </trkpt>
      <trkpt lat="43.29027" lon="3.49729">
        <ele>24</ele>
        <time>2010-09-03T19:50:42Z</time>
      </trkpt>
      <trkpt lat="43.29042" lon="3.49785">
        <ele>25</ele>
        <time>2010-09-03T19:50:42Z</time>
      </trkpt>
      <trkpt lat="43.29055" lon="3.49841">
        <ele>38</ele>
        <time>2010-09-03T19:50:42Z</time>
      </trkpt>
      <trkpt lat="43.29052" lon="3.49899">
        <ele>35</ele>
        <time>2010-09-03T19:50:42Z</time>
      </trkpt>
      <trkpt lat="43.29072" lon="3.49939">
        <ele>39</ele>
        <time>2010-09-03T19:50:42Z</time>
      </trkpt>
      <trkpt lat="43.291" lon="3.49931">
        <ele>36</ele>
        <time>2010-09-03T19:50:42Z</time>
      </trkpt>
      <trkpt lat="43.29128" lon="3.49931">
        <ele>35</ele>
        <time>2010-09-03T19:50:42Z</time>
      </trkpt>
      <trkpt lat="43.29178" lon="3.49905">
        <ele>32</ele>
        <time>2010-09-03T19:50:42Z</time>
      </trkpt>
      <trkpt lat="43.29204" lon="3.49888">
        <ele>29</ele>
        <time>2010-09-03T19:50:42Z</time>
      </trkpt>
      <trkpt lat="43.29254" lon="3.49859">
        <ele>23</ele>
        <time>2010-09-03T19:50:42Z</time>
      </trkpt>
      <trkpt lat="43.29283" lon="3.49854">
        <ele>21</ele>
        <time>2010-09-03T19:50:42Z</time>
      </trkpt>
      <trkpt lat="43.29338" lon="3.49833">
        <ele>29</ele>
        <time>2010-09-03T19:50:42Z</time>
      </trkpt>
      <trkpt lat="43.29369" lon="3.49783">
        <ele>34</ele>
        <time>2010-09-03T19:50:42Z</time>
      </trkpt>
      <trkpt lat="43.29405" lon="3.4974">
        <ele>35</ele>
        <time>2010-09-03T19:50:42Z</time>
      </trkpt>
      <trkpt lat="43.2945" lon="3.49706">
        <ele>34</ele>
        <time>2010-09-03T19:50:42Z</time>
      </trkpt>
      <trkpt lat="43.29475" lon="3.49689">
        <ele>35</ele>
        <time>2010-09-03T19:50:42Z</time>
      </trkpt>
      <trkpt lat="43.29522" lon="3.49657">
        <ele>39</ele>
        <time>2010-09-03T19:50:42Z</time>
      </trkpt>
      <trkpt lat="43.29569" lon="3.49628">
        <ele>43</ele>
        <time>2010-09-03T19:50:42Z</time>
      </trkpt>
      <trkpt lat="43.29612" lon="3.49589">
        <ele>45</ele>
        <time>2010-09-03T19:50:42Z</time>
      </trkpt>
      <trkpt lat="43.29658" lon="3.4955">
        <ele>42</ele>
        <time>2010-09-03T19:50:42Z</time>
      </trkpt>
      <trkpt lat="43.29684" lon="3.49531">
        <ele>41</ele>
        <time>2010-09-03T19:50:42Z</time>
      </trkpt>
      <trkpt lat="43.29707" lon="3.49509">
        <ele>40</ele>
        <time>2010-09-03T19:50:42Z</time>
      </trkpt>
      <trkpt lat="43.2973" lon="3.49488">
        <ele>39</ele>
        <time>2010-09-03T19:50:42Z</time>
      </trkpt>
      <trkpt lat="43.29752" lon="3.49465">
        <ele>37</ele>
        <time>2010-09-03T19:50:42Z</time>
      </trkpt>
      <trkpt lat="43.29776" lon="3.49442">
        <ele>36</ele>
        <time>2010-09-03T19:50:42Z</time>
      </trkpt>
      <trkpt lat="43.29798" lon="3.4942">
        <ele>33</ele>
        <time>2010-09-03T19:50:42Z</time>
      </trkpt>
      <trkpt lat="43.2984" lon="3.49372">
        <ele>29</ele>
        <time>2010-09-03T19:50:42Z</time>
      </trkpt>
      <trkpt lat="43.29873" lon="3.4932">
        <ele>30</ele>
        <time>2010-09-03T19:50:42Z</time>
      </trkpt>
      <trkpt lat="43.29905" lon="3.49272">
        <ele>27</ele>
        <time>2010-09-03T19:50:42Z</time>
      </trkpt>
      <trkpt lat="43.2991" lon="3.49216">
        <ele>29</ele>
        <time>2010-09-03T19:50:42Z</time>
      </trkpt>
      <trkpt lat="43.29955" lon="3.49188">
        <ele>27</ele>
        <time>2010-09-03T19:50:42Z</time>
      </trkpt>
      <trkpt lat="43.29984" lon="3.4914">
        <ele>26</ele>
        <time>2010-09-03T19:50:42Z</time>
      </trkpt>
      <trkpt lat="43.30014" lon="3.49086">
        <ele>23</ele>
        <time>2010-09-03T19:50:42Z</time>
      </trkpt>
      <trkpt lat="43.30044" lon="3.49031">
        <ele>23</ele>
        <time>2010-09-03T19:50:42Z</time>
      </trkpt>
      <trkpt lat="43.30071" lon="3.48977">
        <ele>18</ele>
        <time>2010-09-03T19:50:42Z</time>
      </trkpt>
      <trkpt lat="43.30104" lon="3.4892">
        <ele>18</ele>
        <time>2010-09-03T19:50:42Z</time>
      </trkpt>
      <trkpt lat="43.30137" lon="3.48863">
        <ele>19</ele>
        <time>2010-09-03T19:50:42Z</time>
      </trkpt>
      <trkpt lat="43.30168" lon="3.48808">
        <ele>16</ele>
        <time>2010-09-03T19:50:42Z</time>
      </trkpt>
      <trkpt lat="43.30194" lon="3.48758">
        <ele>15</ele>
        <time>2010-09-03T19:50:42Z</time>
      </trkpt>
      <trkpt lat="43.3022" lon="3.48704">
        <ele>14</ele>
        <time>2010-09-03T19:50:42Z</time>
      </trkpt>
      <trkpt lat="43.30251" lon="3.48653">
        <ele>18</ele>
        <time>2010-09-03T19:50:42Z</time>
      </trkpt>
      <trkpt lat="43.30279" lon="3.48605">
        <ele>20</ele>
        <time>2010-09-03T19:50:42Z</time>
      </trkpt>
      <trkpt lat="43.30285" lon="3.48548">
        <ele>16</ele>
        <time>2010-09-03T19:50:42Z</time>
      </trkpt>
      <trkpt lat="43.30295" lon="3.48506">
        <ele>15</ele>
        <time>2010-09-03T19:50:42Z</time>
      </trkpt>
      <trkpt lat="43.30325" lon="3.48514">
        <ele>14</ele>
        <time>2010-09-03T19:50:42Z</time>
      </trkpt>
      <trkpt lat="43.30363" lon="3.48474">
        <ele>14</ele>
        <time>2010-09-03T19:50:42Z</time>
      </trkpt>
      <trkpt lat="43.30394" lon="3.48426">
        <ele>15</ele>
        <time>2010-09-03T19:50:42Z</time>
      </trkpt>
      <trkpt lat="43.30426" lon="3.48377">
        <ele>17</ele>
        <time>2010-09-03T19:50:42Z</time>
      </trkpt>
      <trkpt lat="43.30456" lon="3.48328">
        <ele>18</ele>
        <time>2010-09-03T19:50:42Z</time>
      </trkpt>
      <trkpt lat="43.30486" lon="3.48271">
        <ele>18</ele>
        <time>2010-09-03T19:50:42Z</time>
      </trkpt>
      <trkpt lat="43.30514" lon="3.48221">
        <ele>16</ele>
        <time>2010-09-03T19:50:42Z</time>
      </trkpt>
      <trkpt lat="43.30555" lon="3.48182">
        <ele>20</ele>
        <time>2010-09-03T19:50:42Z</time>
      </trkpt>
      <trkpt lat="43.30577" lon="3.4816">
        <ele>20</ele>
        <time>2010-09-03T19:50:42Z</time>
      </trkpt>
      <trkpt lat="43.3061" lon="3.48105">
        <ele>23</ele>
        <time>2010-09-03T19:50:42Z</time>
      </trkpt>
      <trkpt lat="43.30638" lon="3.48048">
        <ele>20</ele>
        <time>2010-09-03T19:50:42Z</time>
      </trkpt>
      <trkpt lat="43.30665" lon="3.47997">
        <ele>17</ele>
        <time>2010-09-03T19:50:42Z</time>
      </trkpt>
      <trkpt lat="43.307" lon="3.47944">
        <ele>16</ele>
        <time>2010-09-03T19:50:42Z</time>
      </trkpt>
      <trkpt lat="43.3072" lon="3.47917">
        <ele>15</ele>
        <time>2010-09-03T19:50:42Z</time>
      </trkpt>
      <trkpt lat="43.30754" lon="3.47866">
        <ele>17</ele>
        <time>2010-09-03T19:50:42Z</time>
      </trkpt>
      <trkpt lat="43.30784" lon="3.4782">
        <ele>15</ele>
        <time>2010-09-03T19:50:42Z</time>
      </trkpt>
      <trkpt lat="43.30817" lon="3.47767">
        <ele>13</ele>
        <time>2010-09-03T19:50:42Z</time>
      </trkpt>
      <trkpt lat="43.30845" lon="3.47713">
        <ele>9</ele>
        <time>2010-09-03T19:50:42Z</time>
      </trkpt>
      <trkpt lat="43.30866" lon="3.47689">
        <ele>6</ele>
        <time>2010-09-03T19:50:42Z</time>
      </trkpt>
      <trkpt lat="43.30897" lon="3.47645">
        <ele>7</ele>
        <time>2010-09-03T19:50:42Z</time>
      </trkpt>
      <trkpt lat="43.30931" lon="3.47596">
        <ele>9</ele>
        <time>2010-09-03T19:50:42Z</time>
      </trkpt>
      <trkpt lat="43.3096" lon="3.47545">
        <ele>5</ele>
        <time>2010-09-03T19:50:42Z</time>
      </trkpt>
      <trkpt lat="43.30991" lon="3.47496">
        <ele>7</ele>
        <time>2010-09-03T19:50:42Z</time>
      </trkpt>
      <trkpt lat="43.31021" lon="3.47451">
        <ele>10</ele>
        <time>2010-09-03T19:50:42Z</time>
      </trkpt>
      <trkpt lat="43.31022" lon="3.47391">
        <ele>15</ele>
        <time>2010-09-03T19:50:42Z</time>
      </trkpt>
      <trkpt lat="43.31025" lon="3.47328">
        <ele>18</ele>
        <time>2010-09-03T19:50:42Z</time>
      </trkpt>
      <trkpt lat="43.3104" lon="3.4727">
        <ele>11</ele>
        <time>2010-09-03T19:50:42Z</time>
      </trkpt>
      <trkpt lat="43.31053" lon="3.47209">
        <ele>11</ele>
        <time>2010-09-03T19:50:42Z</time>
      </trkpt>
      <trkpt lat="43.31069" lon="3.47153">
        <ele>12</ele>
        <time>2010-09-03T19:50:42Z</time>
      </trkpt>
      <trkpt lat="43.31081" lon="3.47092">
        <ele>14</ele>
        <time>2010-09-03T19:50:42Z</time>
      </trkpt>
      <trkpt lat="43.31091" lon="3.47033">
        <ele>16</ele>
        <time>2010-09-03T19:50:42Z</time>
      </trkpt>
      <trkpt lat="43.31134" lon="3.4701">
        <ele>13</ele>
        <time>2010-09-03T19:50:42Z</time>
      </trkpt>
      <trkpt lat="43.31187" lon="3.47034">
        <ele>13</ele>
        <time>2010-09-03T19:50:42Z</time>
      </trkpt>
      <trkpt lat="43.31234" lon="3.47059">
        <ele>20</ele>
        <time>2010-09-03T19:50:42Z</time>
      </trkpt>
      <trkpt lat="43.31259" lon="3.47073">
        <ele>20</ele>
        <time>2010-09-03T19:50:42Z</time>
      </trkpt>
      <trkpt lat="43.31299" lon="3.47122">
        <ele>22</ele>
        <time>2010-09-03T19:50:42Z</time>
      </trkpt>
      <trkpt lat="43.31337" lon="3.47171">
        <ele>19</ele>
        <time>2010-09-03T19:50:42Z</time>
      </trkpt>
      <trkpt lat="43.31388" lon="3.4719">
        <ele>6</ele>
        <time>2010-09-03T19:50:42Z</time>
      </trkpt>
      <trkpt lat="43.31419" lon="3.47184">
        <ele>3</ele>
        <time>2010-09-03T19:50:42Z</time>
      </trkpt>
      <trkpt lat="43.31445" lon="3.47169">
        <ele>1</ele>
        <time>2010-09-03T19:50:42Z</time>
      </trkpt>
      <trkpt lat="43.31483" lon="3.47121">
        <ele>4</ele>
        <time>2010-09-03T19:50:42Z</time>
      </trkpt>
      <trkpt lat="43.31512" lon="3.47073">
        <ele>2</ele>
        <time>2010-09-03T19:50:42Z</time>
      </trkpt>
      <trkpt lat="43.31498" lon="3.47026">
        <ele>1</ele>
        <time>2010-09-03T19:50:42Z</time>
      </trkpt>
      <trkpt lat="43.31474" lon="3.46974">
        <ele>7</ele>
        <time>2010-09-03T19:50:42Z</time>
      </trkpt>
      <trkpt lat="43.31497" lon="3.4692">
        <ele>9</ele>
        <time>2010-09-03T19:50:42Z</time>
      </trkpt>
      <trkpt lat="43.31527" lon="3.46864">
        <ele>7</ele>
        <time>2010-09-03T19:50:42Z</time>
      </trkpt>
      <trkpt lat="43.3158" lon="3.46855">
        <ele>1</ele>
        <time>2010-09-03T19:50:42Z</time>
      </trkpt>
      <trkpt lat="43.31636" lon="3.46844">
        <ele>2</ele>
        <time>2010-09-03T19:50:42Z</time>
      </trkpt>
      <trkpt lat="43.3169" lon="3.46832">
        <ele>4</ele>
        <time>2010-09-03T19:50:42Z</time>
      </trkpt>
      <trkpt lat="43.31718" lon="3.46823">
        <ele>4</ele>
        <time>2010-09-03T19:50:42Z</time>
      </trkpt>
      <trkpt lat="43.31746" lon="3.46821">
        <ele>5</ele>
        <time>2010-09-03T19:50:42Z</time>
      </trkpt>
      <trkpt lat="43.31776" lon="3.46824">
        <ele>2.6</ele>
        <time>2010-09-03T19:50:42Z</time>
      </trkpt>
      <trkpt lat="43.31822" lon="3.46791">
        <ele>4</ele>
        <time>2010-09-03T19:50:42Z</time>
      </trkpt>
      <trkpt lat="43.31848" lon="3.46782">
        <ele>6</ele>
        <time>2010-09-03T19:50:42Z</time>
      </trkpt>
      <trkpt lat="43.31877" lon="3.46774">
        <ele>7</ele>
        <time>2010-09-03T19:50:42Z</time>
      </trkpt>
      <trkpt lat="43.31907" lon="3.46764">
        <ele>6</ele>
        <time>2010-09-03T19:50:42Z</time>
      </trkpt>
      <trkpt lat="43.31933" lon="3.46752">
        <ele>5</ele>
        <time>2010-09-03T19:50:42Z</time>
      </trkpt>
      <trkpt lat="43.31983" lon="3.46722">
        <ele>6</ele>
        <time>2010-09-03T19:50:42Z</time>
      </trkpt>
      <trkpt lat="43.31994" lon="3.46684">
        <ele>4</ele>
        <time>2010-09-03T19:50:42Z</time>
      </trkpt>
      <trkpt lat="43.31984" lon="3.46636">
        <ele>-4</ele>
        <time>2010-09-03T19:50:42Z</time>
      </trkpt>
      <trkpt lat="43.31972" lon="3.46579">
        <ele>-5</ele>
        <time>2010-09-03T19:50:42Z</time>
      </trkpt>
      <trkpt lat="43.31962" lon="3.46516">
        <ele>-3</ele>
        <time>2010-09-03T19:50:42Z</time>
      </trkpt>
      <trkpt lat="43.31955" lon="3.46459">
        <ele>3</ele>
        <time>2010-09-03T19:50:42Z</time>
      </trkpt>
      <trkpt lat="43.31945" lon="3.46401">
        <ele>6</ele>
        <time>2010-09-03T19:50:42Z</time>
      </trkpt>
      <trkpt lat="43.31937" lon="3.46343">
        <ele>7</ele>
        <time>2010-09-03T19:50:42Z</time>
      </trkpt>
      <trkpt lat="43.31927" lon="3.46282">
        <ele>11</ele>
        <time>2010-09-03T19:50:42Z</time>
      </trkpt>
      <trkpt lat="43.31919" lon="3.46216">
        <ele>8</ele>
        <time>2010-09-03T19:50:42Z</time>
      </trkpt>
      <trkpt lat="43.31908" lon="3.46158">
        <ele>7</ele>
        <time>2010-09-03T19:50:42Z</time>
      </trkpt>
      <trkpt lat="43.31902" lon="3.46097">
        <ele>-2</ele>
        <time>2010-09-03T19:50:42Z</time>
      </trkpt>
      <trkpt lat="43.3189" lon="3.46033">
        <ele>2.2</ele>
        <time>2010-09-03T19:50:42Z</time>
      </trkpt>
      <trkpt lat="43.31883" lon="3.45975">
        <ele>-5</ele>
        <time>2010-09-03T19:50:42Z</time>
      </trkpt>
      <trkpt lat="43.3187" lon="3.45916">
        <ele>-3</ele>
        <time>2010-09-03T19:50:42Z</time>
      </trkpt>
      <trkpt lat="43.3185" lon="3.458">
        <ele>1.5</ele>
      </trkpt>
      <trkpt lat="43.31831" lon="3.45684">
        <ele>2.6</ele>
      </trkpt>
      <trkpt lat="43.31811" lon="3.45568">
        <ele>2.7</ele>
      </trkpt>
      <trkpt lat="43.31791" lon="3.45453">
        <ele>1.5</ele>
      </trkpt>
      <trkpt lat="43.31771" lon="3.45337">
        <ele>1.5</ele>
      </trkpt>
      <trkpt lat="43.31751" lon="3.45221">
        <ele>2</ele>
      </trkpt>
      <trkpt lat="43.31732" lon="3.45105">
        <ele>1.8</ele>
      </trkpt>
      <trkpt lat="43.31712" lon="3.44989">
        <ele>1.6</ele>
      </trkpt>
      <trkpt lat="43.31692" lon="3.44873">
        <ele>2.4</ele>
      </trkpt>
      <trkpt lat="43.31672" lon="3.44757">
        <ele>2.3</ele>
      </trkpt>
      <trkpt lat="43.31652" lon="3.44641">
        <ele>1.5</ele>
      </trkpt>
      <trkpt lat="43.31633" lon="3.44525">
        <ele>1.2</ele>
      </trkpt>
      <trkpt lat="43.31613" lon="3.44409">
        <ele>2.3</ele>
      </trkpt>
      <trkpt lat="43.31593" lon="3.44293">
        <ele>1.7</ele>
      </trkpt>
      <trkpt lat="43.31573" lon="3.44178">
        <ele>3</ele>
        <time>2010-09-03T19:50:42Z</time>
      </trkpt>
      <trkpt lat="43.31542" lon="3.44125">
        <ele>2</ele>
      </trkpt>
      <trkpt lat="43.31511" lon="3.44072">
        <ele>3</ele>
        <time>2010-09-03T19:50:42Z</time>
      </trkpt>
      <trkpt lat="43.3143" lon="3.44071">
        <ele>2.7</ele>
      </trkpt>
      <trkpt lat="43.31349" lon="3.44069">
        <ele>3</ele>
        <time>2010-09-03T19:50:42Z</time>
      </trkpt>
      <trkpt lat="43.31319" lon="3.44063">
        <ele>3</ele>
        <time>2010-09-03T19:50:42Z</time>
      </trkpt>
      <trkpt lat="43.31291" lon="3.44053">
        <ele>3</ele>
        <time>2010-09-03T19:50:42Z</time>
      </trkpt>
      <trkpt lat="43.31265" lon="3.44039">
        <ele>4</ele>
        <time>2010-09-03T19:50:42Z</time>
      </trkpt>
      <trkpt lat="43.31224" lon="3.44005">
        <ele>6</ele>
        <time>2010-09-03T19:50:42Z</time>
      </trkpt>
      <trkpt lat="43.31197" lon="3.43994">
        <ele>8</ele>
        <time>2010-09-03T19:50:42Z</time>
      </trkpt>
      <trkpt lat="43.31171" lon="3.43975">
        <ele>8</ele>
        <time>2010-09-03T19:50:42Z</time>
      </trkpt>
      <trkpt lat="43.31145" lon="3.43958">
        <ele>6</ele>
        <time>2010-09-03T19:50:42Z</time>
      </trkpt>
      <trkpt lat="43.31095" lon="3.43934">
        <ele>2</ele>
        <time>2010-09-03T19:50:42Z</time>
      </trkpt>
      <trkpt lat="43.31065" lon="3.43919">
        <ele>7</ele>
        <time>2010-09-03T19:50:42Z</time>
      </trkpt>
      <trkpt lat="43.31037" lon="3.43907">
        <ele>10</ele>
        <time>2010-09-03T19:50:42Z</time>
      </trkpt>
      <trkpt lat="43.31011" lon="3.43895">
        <ele>11</ele>
        <time>2010-09-03T19:50:42Z</time>
      </trkpt>
      <trkpt lat="43.30959" lon="3.43875">
        <ele>7</ele>
        <time>2010-09-03T19:50:42Z</time>
      </trkpt>
      <trkpt lat="43.30932" lon="3.43864">
        <ele>5</ele>
        <time>2010-09-03T19:50:42Z</time>
      </trkpt>
      <trkpt lat="43.30905" lon="3.43852">
        <ele>3</ele>
        <time>2010-09-03T19:50:42Z</time>
      </trkpt>
      <trkpt lat="43.30857" lon="3.43826">
        <ele>1</ele>
        <time>2010-09-03T19:50:42Z</time>
      </trkpt>
      <trkpt lat="43.30831" lon="3.43814">
        <ele>5</ele>
        <time>2010-09-03T19:50:42Z</time>
      </trkpt>
      <trkpt lat="43.30802" lon="3.43802">
        <ele>7</ele>
        <time>2010-09-03T19:50:42Z</time>
      </trkpt>
      <trkpt lat="43.30776" lon="3.4379">
        <ele>6</ele>
        <time>2010-09-03T19:50:42Z</time>
      </trkpt>
      <trkpt lat="43.30748" lon="3.43775">
        <ele>5</ele>
        <time>2010-09-03T19:50:42Z</time>
      </trkpt>
      <trkpt lat="43.30719" lon="3.43768">
        <ele>5</ele>
        <time>2010-09-03T19:50:42Z</time>
      </trkpt>
      <trkpt lat="43.30693" lon="3.43755">
        <ele>4</ele>
        <time>2010-09-03T19:50:42Z</time>
      </trkpt>
      <trkpt lat="43.30666" lon="3.43743">
        <ele>5</ele>
        <time>2010-09-03T19:50:42Z</time>
      </trkpt>
      <trkpt lat="43.30638" lon="3.4373">
        <ele>6</ele>
        <time>2010-09-03T19:50:42Z</time>
      </trkpt>
      <trkpt lat="43.3061" lon="3.43717">
        <ele>9</ele>
        <time>2010-09-03T19:50:42Z</time>
      </trkpt>
      <trkpt lat="43.30581" lon="3.43705">
        <ele>11</ele>
        <time>2010-09-03T19:50:42Z</time>
      </trkpt>
      <trkpt lat="43.30552" lon="3.4369">
        <ele>11</ele>
        <time>2010-09-03T19:50:42Z</time>
      </trkpt>
      <trkpt lat="43.30526" lon="3.43675">
        <ele>9</ele>
        <time>2010-09-03T19:50:42Z</time>
      </trkpt>
      <trkpt lat="43.305" lon="3.43659">
        <ele>11</ele>
        <time>2010-09-03T19:50:42Z</time>
      </trkpt>
      <trkpt lat="43.30454" lon="3.43631">
        <ele>9</ele>
        <time>2010-09-03T19:50:42Z</time>
      </trkpt>
      <trkpt lat="43.30419" lon="3.43577">
        <ele>9</ele>
        <time>2010-09-03T19:50:42Z</time>
      </trkpt>
      <trkpt lat="43.30384" lon="3.43531">
        <ele>7</ele>
        <time>2010-09-03T19:50:42Z</time>
      </trkpt>
      <trkpt lat="43.30352" lon="3.43479">
        <ele>4</ele>
        <time>2010-09-03T19:50:42Z</time>
      </trkpt>
      <trkpt lat="43.30329" lon="3.43418">
        <ele>5</ele>
        <time>2010-09-03T19:50:42Z</time>
      </trkpt>
      <trkpt lat="43.30313" lon="3.43349">
        <ele>5</ele>
        <time>2010-09-03T19:50:42Z</time>
      </trkpt>
      <trkpt lat="43.30308" lon="3.43285">
        <ele>6</ele>
        <time>2010-09-03T19:50:42Z</time>
      </trkpt>
      <trkpt lat="43.30304" lon="3.4322">
        <ele>7</ele>
        <time>2010-09-03T19:50:42Z</time>
      </trkpt>
      <trkpt lat="43.303" lon="3.43153">
        <ele>8</ele>
        <time>2010-09-03T19:50:42Z</time>
      </trkpt>
      <trkpt lat="43.30296" lon="3.43086">
        <ele>7</ele>
        <time>2010-09-03T19:50:42Z</time>
      </trkpt>
      <trkpt lat="43.30291" lon="3.4302">
        <ele>5</ele>
        <time>2010-09-03T19:50:42Z</time>
      </trkpt>
      <trkpt lat="43.30268" lon="3.42968">
        <ele>3</ele>
        <time>2010-09-03T19:50:42Z</time>
      </trkpt>
      <trkpt lat="43.30285" lon="3.42913">
        <ele>2</ele>
        <time>2010-09-03T19:50:42Z</time>
      </trkpt>
      <trkpt lat="43.3028" lon="3.42847">
        <ele>2</ele>
        <time>2010-09-03T19:50:42Z</time>
      </trkpt>
      <trkpt lat="43.30275" lon="3.42791">
        <ele>2</ele>
        <time>2010-09-03T19:50:42Z</time>
      </trkpt>
      <trkpt lat="43.30271" lon="3.42735">
        <ele>3</ele>
        <time>2010-09-03T19:50:42Z</time>
      </trkpt>
      <trkpt lat="43.30267" lon="3.42678">
        <ele>4</ele>
        <time>2010-09-03T19:50:42Z</time>
      </trkpt>
      <trkpt lat="43.30263" lon="3.42618">
        <ele>5</ele>
        <time>2010-09-03T19:50:42Z</time>
      </trkpt>
      <trkpt lat="43.30259" lon="3.4256">
        <ele>4</ele>
        <time>2010-09-03T19:50:42Z</time>
      </trkpt>
      <trkpt lat="43.30255" lon="3.42502">
        <ele>5</ele>
        <time>2010-09-03T19:50:42Z</time>
      </trkpt>
      <trkpt lat="43.30253" lon="3.42444">
        <ele>4</ele>
        <time>2010-09-03T19:50:42Z</time>
      </trkpt>
      <trkpt lat="43.30248" lon="3.42385">
        <ele>3</ele>
        <time>2010-09-03T19:50:42Z</time>
      </trkpt>
      <trkpt lat="43.30243" lon="3.42326">
        <ele>4</ele>
        <time>2010-09-03T19:50:42Z</time>
      </trkpt>
      <trkpt lat="43.30239" lon="3.42266">
        <ele>2</ele>
        <time>2010-09-03T19:50:42Z</time>
      </trkpt>
      <trkpt lat="43.30233" lon="3.42206">
        <ele>4</ele>
        <time>2010-09-03T19:50:42Z</time>
      </trkpt>
      <trkpt lat="43.30231" lon="3.4215">
        <ele>2</ele>
        <time>2010-09-03T19:50:42Z</time>
      </trkpt>
      <trkpt lat="43.30228" lon="3.42084">
        <ele>3</ele>
        <time>2010-09-03T19:50:42Z</time>
      </trkpt>
      <trkpt lat="43.30225" lon="3.42021">
        <ele>2.1</ele>
        <time>2010-09-03T19:50:42Z</time>
      </trkpt>
      <trkpt lat="43.30213" lon="3.4196">
        <ele>2</ele>
        <time>2010-09-03T19:50:42Z</time>
      </trkpt>
      <trkpt lat="43.30209" lon="3.41904">
        <ele>4</ele>
        <time>2010-09-03T19:50:42Z</time>
      </trkpt>
      <trkpt lat="43.30253" lon="3.41888">
        <ele>1</ele>
        <time>2010-09-03T19:50:42Z</time>
      </trkpt>
      <trkpt lat="43.3029" lon="3.41873">
        <ele>2.2</ele>
        <time>2010-09-03T19:50:42Z</time>
      </trkpt>
      <trkpt lat="43.30316" lon="3.41857">
        <ele>2</ele>
        <time>2010-09-03T19:50:42Z</time>
      </trkpt>
      <trkpt lat="43.30342" lon="3.4184">
        <ele>1</ele>
        <time>2010-09-03T19:50:42Z</time>
      </trkpt>
      <trkpt lat="43.30368" lon="3.41823">
        <ele>2.7</ele>
        <time>2010-09-03T19:50:42Z</time>
      </trkpt>
      <trkpt lat="43.30395" lon="3.41815">
        <ele>1</ele>
        <time>2010-09-03T19:50:42Z</time>
      </trkpt>
      <trkpt lat="43.30424" lon="3.41817">
        <ele>1</ele>
        <time>2010-09-03T19:50:42Z</time>
      </trkpt>
      <trkpt lat="43.30456" lon="3.41823">
        <ele>2</ele>
        <time>2010-09-03T19:50:42Z</time>
      </trkpt>
      <trkpt lat="43.30484" lon="3.41828">
        <ele>1</ele>
        <time>2010-09-03T19:50:42Z</time>
      </trkpt>
      <trkpt lat="43.30512" lon="3.41834">
        <ele>1</ele>
        <time>2010-09-03T19:50:42Z</time>
      </trkpt>
      <trkpt lat="43.3054" lon="3.41845">
        <ele>1</ele>
        <time>2010-09-03T19:50:42Z</time>
      </trkpt>
      <trkpt lat="43.3056" lon="3.41869">
        <ele>2</ele>
        <time>2010-09-03T19:50:42Z</time>
      </trkpt>
      <trkpt lat="43.30583" lon="3.41922">
        <ele>4</ele>
        <time>2010-09-03T19:50:42Z</time>
      </trkpt>
      <trkpt lat="43.3059" lon="3.41979">
        <ele>3.4</ele>
        <time>2010-09-03T19:50:42Z</time>
      </trkpt>
      <trkpt lat="43.306" lon="3.42036">
        <ele>-1</ele>
        <time>2010-09-03T19:50:42Z</time>
      </trkpt>
      <trkpt lat="43.30611" lon="3.42092">
        <ele>-2</ele>
        <time>2010-09-03T19:50:42Z</time>
      </trkpt>
      <trkpt lat="43.3062" lon="3.42152">
        <ele>-6</ele>
        <time>2010-09-03T19:50:42Z</time>
      </trkpt>
      <trkpt lat="43.30666" lon="3.42131">
        <ele>-2</ele>
        <time>2010-09-03T19:50:42Z</time>
      </trkpt>
      <trkpt lat="43.30716" lon="3.42103">
        <ele>3</ele>
        <time>2010-09-03T19:50:42Z</time>
      </trkpt>
      <trkpt lat="43.30744" lon="3.4209">
        <ele>4</ele>
        <time>2010-09-03T19:50:42Z</time>
      </trkpt>
      <trkpt lat="43.30774" lon="3.42078">
        <ele>5</ele>
        <time>2010-09-03T19:50:42Z</time>
      </trkpt>
      <trkpt lat="43.30803" lon="3.42068">
        <ele>6</ele>
        <time>2010-09-03T19:50:42Z</time>
      </trkpt>
      <trkpt lat="43.30833" lon="3.42058">
        <ele>7</ele>
        <time>2010-09-03T19:50:42Z</time>
      </trkpt>
      <trkpt lat="43.30861" lon="3.42049">
        <ele>8</ele>
        <time>2010-09-03T19:50:42Z</time>
      </trkpt>
      <trkpt lat="43.30889" lon="3.42041">
        <ele>8</ele>
        <time>2010-09-03T19:50:42Z</time>
      </trkpt>
      <trkpt lat="43.30916" lon="3.42033">
        <ele>8</ele>
        <time>2010-09-03T19:50:42Z</time>
      </trkpt>
      <trkpt lat="43.30944" lon="3.42025">
        <ele>8</ele>
        <time>2010-09-03T19:50:42Z</time>
      </trkpt>
      <trkpt lat="43.30971" lon="3.42018">
        <ele>7</ele>
        <time>2010-09-03T19:50:42Z</time>
      </trkpt>
      <trkpt lat="43.31" lon="3.4201">
        <ele>7</ele>
        <time>2010-09-03T19:50:42Z</time>
      </trkpt>
      <trkpt lat="43.31027" lon="3.42002">
        <ele>7</ele>
        <time>2010-09-03T19:50:42Z</time>
      </trkpt>
      <trkpt lat="43.31056" lon="3.41993">
        <ele>7</ele>
        <time>2010-09-03T19:50:42Z</time>
      </trkpt>
      <trkpt lat="43.31084" lon="3.41985">
        <ele>8</ele>
        <time>2010-09-03T19:50:42Z</time>
      </trkpt>
      <trkpt lat="43.31117" lon="3.42025">
        <ele>2</ele>
        <time>2010-09-03T19:50:42Z</time>
      </trkpt>
      <trkpt lat="43.31161" lon="3.42062">
        <ele>5</ele>
        <time>2010-09-03T19:50:42Z</time>
      </trkpt>
      <trkpt lat="43.3119" lon="3.42071">
        <ele>6</ele>
        <time>2010-09-03T19:50:42Z</time>
      </trkpt>
      <trkpt lat="43.31219" lon="3.42078">
        <ele>9</ele>
        <time>2010-09-03T19:50:42Z</time>
      </trkpt>
      <trkpt lat="43.31247" lon="3.4208">
        <ele>9</ele>
        <time>2010-09-03T19:50:42Z</time>
      </trkpt>
      <trkpt lat="43.31276" lon="3.42079">
        <ele>9</ele>
        <time>2010-09-03T19:50:42Z</time>
      </trkpt>
      <trkpt lat="43.31304" lon="3.42078">
        <ele>10</ele>
        <time>2010-09-03T19:50:42Z</time>
      </trkpt>
      <trkpt lat="43.31332" lon="3.42069">
        <ele>8</ele>
        <time>2010-09-03T19:50:42Z</time>
      </trkpt>
      <trkpt lat="43.31362" lon="3.42022">
        <ele>7</ele>
        <time>2010-09-03T19:50:42Z</time>
      </trkpt>
      <trkpt lat="43.31402" lon="3.41983">
        <ele>15</ele>
        <time>2010-09-03T19:50:42Z</time>
      </trkpt>
      <trkpt lat="43.3143" lon="3.41979">
        <ele>16</ele>
        <time>2010-09-03T19:50:42Z</time>
      </trkpt>
      <trkpt lat="43.31459" lon="3.41978">
        <ele>17</ele>
        <time>2010-09-03T19:50:42Z</time>
      </trkpt>
      <trkpt lat="43.31486" lon="3.41981">
        <ele>17</ele>
        <time>2010-09-03T19:50:42Z</time>
      </trkpt>
      <trkpt lat="43.31518" lon="3.41979">
        <ele>20</ele>
        <time>2010-09-03T19:50:42Z</time>
      </trkpt>
      <trkpt lat="43.3157" lon="3.42003">
        <ele>21</ele>
        <time>2010-09-03T19:50:42Z</time>
      </trkpt>
      <trkpt lat="43.31596" lon="3.42018">
        <ele>18</ele>
        <time>2010-09-03T19:50:42Z</time>
      </trkpt>
      <trkpt lat="43.31625" lon="3.41983">
        <ele>19</ele>
        <time>2010-09-03T19:50:42Z</time>
      </trkpt>
      <trkpt lat="43.31676" lon="3.41965">
        <ele>20</ele>
        <time>2010-09-03T19:50:42Z</time>
      </trkpt>
      <trkpt lat="43.31706" lon="3.41965">
        <ele>20</ele>
        <time>2010-09-03T19:50:42Z</time>
      </trkpt>
      <trkpt lat="43.31738" lon="3.41965">
        <ele>21</ele>
        <time>2010-09-03T19:50:42Z</time>
      </trkpt>
      <trkpt lat="43.31768" lon="3.41966">
        <ele>22</ele>
        <time>2010-09-03T19:50:42Z</time>
      </trkpt>
      <trkpt lat="43.31799" lon="3.41968">
        <ele>23</ele>
        <time>2010-09-03T19:50:42Z</time>
      </trkpt>
      <trkpt lat="43.31827" lon="3.4197">
        <ele>20</ele>
        <time>2010-09-03T19:50:42Z</time>
      </trkpt>
      <trkpt lat="43.31855" lon="3.41972">
        <ele>21</ele>
        <time>2010-09-03T19:50:42Z</time>
      </trkpt>
      <trkpt lat="43.31883" lon="3.41972">
        <ele>22</ele>
        <time>2010-09-03T19:50:42Z</time>
      </trkpt>
      <trkpt lat="43.31911" lon="3.41966">
        <ele>24</ele>
        <time>2010-09-03T19:50:42Z</time>
      </trkpt>
      <trkpt lat="43.31961" lon="3.41937">
        <ele>27</ele>
        <time>2010-09-03T19:50:42Z</time>
      </trkpt>
      <trkpt lat="43.31984" lon="3.41918">
        <ele>28</ele>
        <time>2010-09-03T19:50:42Z</time>
      </trkpt>
      <trkpt lat="43.32031" lon="3.41883">
        <ele>30</ele>
        <time>2010-09-03T19:50:42Z</time>
      </trkpt>
      <trkpt lat="43.32055" lon="3.41867">
        <ele>30</ele>
        <time>2010-09-03T19:50:42Z</time>
      </trkpt>
      <trkpt lat="43.32081" lon="3.41852">
        <ele>31</ele>
        <time>2010-09-03T19:50:42Z</time>
      </trkpt>
      <trkpt lat="43.32106" lon="3.41838">
        <ele>31</ele>
        <time>2010-09-03T19:50:42Z</time>
      </trkpt>
      <trkpt lat="43.32132" lon="3.41825">
        <ele>30</ele>
        <time>2010-09-03T19:50:42Z</time>
      </trkpt>
      <trkpt lat="43.32158" lon="3.41811">
        <ele>30</ele>
        <time>2010-09-03T19:50:42Z</time>
      </trkpt>
      <trkpt lat="43.32204" lon="3.41782">
        <ele>30</ele>
        <time>2010-09-03T19:50:42Z</time>
      </trkpt>
      <trkpt lat="43.32255" lon="3.41757">
        <ele>29</ele>
        <time>2010-09-03T19:50:42Z</time>
      </trkpt>
      <trkpt lat="43.32284" lon="3.41746">
        <ele>27</ele>
        <time>2010-09-03T19:50:42Z</time>
      </trkpt>
      <trkpt lat="43.32311" lon="3.41733">
        <ele>28</ele>
        <time>2010-09-03T19:50:42Z</time>
      </trkpt>
      <trkpt lat="43.3234" lon="3.41721">
        <ele>31</ele>
        <time>2010-09-03T19:50:42Z</time>
      </trkpt>
      <trkpt lat="43.32384" lon="3.4169">
        <ele>35</ele>
        <time>2010-09-03T19:50:42Z</time>
      </trkpt>
      <trkpt lat="43.3243" lon="3.41654">
        <ele>39</ele>
        <time>2010-09-03T19:50:42Z</time>
      </trkpt>
      <trkpt lat="43.3247" lon="3.41616">
        <ele>36</ele>
        <time>2010-09-03T19:50:42Z</time>
      </trkpt>
      <trkpt lat="43.32462" lon="3.41557">
        <ele>35</ele>
        <time>2010-09-03T19:50:42Z</time>
      </trkpt>
      <trkpt lat="43.32456" lon="3.41496">
        <ele>35</ele>
        <time>2010-09-03T19:50:42Z</time>
      </trkpt>
      <trkpt lat="43.32449" lon="3.41435">
        <ele>32</ele>
        <time>2010-09-03T19:50:42Z</time>
      </trkpt>
      <trkpt lat="43.32479" lon="3.41378">
        <ele>29</ele>
        <time>2010-09-03T19:50:42Z</time>
      </trkpt>
      <trkpt lat="43.32505" lon="3.41363">
        <ele>29</ele>
        <time>2010-09-03T19:50:42Z</time>
      </trkpt>
      <trkpt lat="43.32533" lon="3.41351">
        <ele>29</ele>
        <time>2010-09-03T19:50:42Z</time>
      </trkpt>
      <trkpt lat="43.32562" lon="3.41337">
        <ele>29</ele>
        <time>2010-09-03T19:50:42Z</time>
      </trkpt>
      <trkpt lat="43.32618" lon="3.41319">
        <ele>27</ele>
        <time>2010-09-03T19:50:42Z</time>
      </trkpt>
      <trkpt lat="43.32649" lon="3.41312">
        <ele>28</ele>
        <time>2010-09-03T19:50:42Z</time>
      </trkpt>
      <trkpt lat="43.32679" lon="3.41308">
        <ele>31</ele>
        <time>2010-09-03T19:50:42Z</time>
      </trkpt>
      <trkpt lat="43.3271" lon="3.41302">
        <ele>30</ele>
        <time>2010-09-03T19:50:42Z</time>
      </trkpt>
      <trkpt lat="43.3274" lon="3.41297">
        <ele>30</ele>
        <time>2010-09-03T19:50:42Z</time>
      </trkpt>
      <trkpt lat="43.3277" lon="3.41296">
        <ele>26</ele>
        <time>2010-09-03T19:50:42Z</time>
      </trkpt>
      <trkpt lat="43.32802" lon="3.41295">
        <ele>24</ele>
        <time>2010-09-03T19:50:42Z</time>
      </trkpt>
      <trkpt lat="43.32833" lon="3.41291">
        <ele>23</ele>
        <time>2010-09-03T19:50:42Z</time>
      </trkpt>
      <trkpt lat="43.32864" lon="3.41291">
        <ele>24</ele>
        <time>2010-09-03T19:50:42Z</time>
      </trkpt>
      <trkpt lat="43.32892" lon="3.41293">
        <ele>22</ele>
        <time>2010-09-03T19:50:42Z</time>
      </trkpt>
      <trkpt lat="43.32921" lon="3.41293">
        <ele>20</ele>
        <time>2010-09-03T19:50:42Z</time>
      </trkpt>
      <trkpt lat="43.32951" lon="3.41292">
        <ele>20</ele>
        <time>2010-09-03T19:50:42Z</time>
      </trkpt>
      <trkpt lat="43.32984" lon="3.41292">
        <ele>19</ele>
        <time>2010-09-03T19:50:42Z</time>
      </trkpt>
      <trkpt lat="43.33012" lon="3.41293">
        <ele>18</ele>
        <time>2010-09-03T19:50:42Z</time>
      </trkpt>
      <trkpt lat="43.33042" lon="3.41292">
        <ele>18</ele>
        <time>2010-09-03T19:50:42Z</time>
      </trkpt>
      <trkpt lat="43.33072" lon="3.41291">
        <ele>15</ele>
        <time>2010-09-03T19:50:42Z</time>
      </trkpt>
      <trkpt lat="43.33103" lon="3.4129">
        <ele>12</ele>
        <time>2010-09-03T19:50:42Z</time>
      </trkpt>
      <trkpt lat="43.33135" lon="3.41291">
        <ele>12</ele>
        <time>2010-09-03T19:50:42Z</time>
      </trkpt>
      <trkpt lat="43.33167" lon="3.41291">
        <ele>11</ele>
        <time>2010-09-03T19:50:42Z</time>
      </trkpt>
      <trkpt lat="43.33197" lon="3.41293">
        <ele>8</ele>
        <time>2010-09-03T19:50:42Z</time>
      </trkpt>
      <trkpt lat="43.33225" lon="3.41296">
        <ele>7</ele>
        <time>2010-09-03T19:50:42Z</time>
      </trkpt>
      <trkpt lat="43.33255" lon="3.41301">
        <ele>10</ele>
        <time>2010-09-03T19:50:42Z</time>
      </trkpt>
      <trkpt lat="43.33285" lon="3.41309">
        <ele>13</ele>
        <time>2010-09-03T19:50:42Z</time>
      </trkpt>
      <trkpt lat="43.33313" lon="3.41317">
        <ele>15</ele>
        <time>2010-09-03T19:50:42Z</time>
      </trkpt>
      <trkpt lat="43.3334" lon="3.41325">
        <ele>16</ele>
        <time>2010-09-03T19:50:42Z</time>
      </trkpt>
      <trkpt lat="43.33367" lon="3.41332">
        <ele>17</ele>
        <time>2010-09-03T19:50:42Z</time>
      </trkpt>
      <trkpt lat="43.33394" lon="3.4134">
        <ele>18</ele>
        <time>2010-09-03T19:50:42Z</time>
      </trkpt>
      <trkpt lat="43.33404" lon="3.41297">
        <ele>15</ele>
        <time>2010-09-03T19:50:42Z</time>
      </trkpt>
      <trkpt lat="43.33442" lon="3.41257">
        <ele>14</ele>
        <time>2010-09-03T19:50:42Z</time>
      </trkpt>
      <trkpt lat="43.33471" lon="3.41246">
        <ele>15</ele>
        <time>2010-09-03T19:50:42Z</time>
      </trkpt>
      <trkpt lat="43.33499" lon="3.41237">
        <ele>15</ele>
        <time>2010-09-03T19:50:42Z</time>
      </trkpt>
      <trkpt lat="43.33551" lon="3.41216">
        <ele>15</ele>
        <time>2010-09-03T19:50:42Z</time>
      </trkpt>
      <trkpt lat="43.33581" lon="3.41217">
        <ele>15</ele>
        <time>2010-09-03T19:50:42Z</time>
      </trkpt>
      <trkpt lat="43.3361" lon="3.41204">
        <ele>16</ele>
        <time>2010-09-03T19:50:42Z</time>
      </trkpt>
      <trkpt lat="43.33656" lon="3.41166">
        <ele>17</ele>
        <time>2010-09-03T19:50:42Z</time>
      </trkpt>
      <trkpt lat="43.33698" lon="3.41129">
        <ele>16</ele>
        <time>2010-09-03T19:50:42Z</time>
      </trkpt>
      <trkpt lat="43.33738" lon="3.41089">
        <ele>16</ele>
        <time>2010-09-03T19:50:42Z</time>
      </trkpt>
      <trkpt lat="43.33772" lon="3.41042">
        <ele>17</ele>
        <time>2010-09-03T19:50:42Z</time>
      </trkpt>
      <trkpt lat="43.33798" lon="3.40987">
        <ele>16</ele>
        <time>2010-09-03T19:50:42Z</time>
      </trkpt>
      <trkpt lat="43.33826" lon="3.40938">
        <ele>15</ele>
        <time>2010-09-03T19:50:42Z</time>
      </trkpt>
      <trkpt lat="43.33851" lon="3.4092">
        <ele>15</ele>
        <time>2010-09-03T19:50:42Z</time>
      </trkpt>
      <trkpt lat="43.33873" lon="3.409">
        <ele>15</ele>
        <time>2010-09-03T19:50:42Z</time>
      </trkpt>
      <trkpt lat="43.33897" lon="3.40878">
        <ele>16</ele>
        <time>2010-09-03T19:50:42Z</time>
      </trkpt>
      <trkpt lat="43.33921" lon="3.40859">
        <ele>16</ele>
        <time>2010-09-03T19:50:42Z</time>
      </trkpt>
      <trkpt lat="43.33957" lon="3.40816">
        <ele>15</ele>
        <time>2010-09-03T19:50:42Z</time>
      </trkpt>
      <trkpt lat="43.33994" lon="3.40772">
        <ele>16</ele>
        <time>2010-09-03T19:50:42Z</time>
      </trkpt>
      <trkpt lat="43.34029" lon="3.40728">
        <ele>18</ele>
        <time>2010-09-03T19:50:42Z</time>
      </trkpt>
      <trkpt lat="43.34059" lon="3.40679">
        <ele>20</ele>
        <time>2010-09-03T19:50:42Z</time>
      </trkpt>
      <trkpt lat="43.34095" lon="3.40637">
        <ele>20</ele>
        <time>2010-09-03T19:50:42Z</time>
      </trkpt>
      <trkpt lat="43.34129" lon="3.40593">
        <ele>22</ele>
        <time>2010-09-03T19:50:42Z</time>
      </trkpt>
      <trkpt lat="43.34156" lon="3.40541">
        <ele>22</ele>
        <time>2010-09-03T19:50:42Z</time>
      </trkpt>
      <trkpt lat="43.34164" lon="3.40483">
        <ele>19</ele>
        <time>2010-09-03T19:50:42Z</time>
      </trkpt>
      <trkpt lat="43.34169" lon="3.40427">
        <ele>18</ele>
        <time>2010-09-03T19:50:42Z</time>
      </trkpt>
      <trkpt lat="43.34175" lon="3.40369">
        <ele>18</ele>
        <time>2010-09-03T19:50:42Z</time>
      </trkpt>
      <trkpt lat="43.34214" lon="3.4033">
        <ele>17</ele>
        <time>2010-09-03T19:50:42Z</time>
      </trkpt>
      <trkpt lat="43.34241" lon="3.4032">
        <ele>17</ele>
        <time>2010-09-03T19:50:42Z</time>
      </trkpt>
      <trkpt lat="43.34272" lon="3.40304">
        <ele>18</ele>
        <time>2010-09-03T19:50:42Z</time>
      </trkpt>
      <trkpt lat="43.34252" lon="3.40248">
        <ele>17</ele>
        <time>2010-09-03T19:50:42Z</time>
      </trkpt>
      <trkpt lat="43.34218" lon="3.40205">
        <ele>15</ele>
        <time>2010-09-03T19:50:42Z</time>
      </trkpt>
      <trkpt lat="43.34176" lon="3.40166">
        <ele>13</ele>
        <time>2010-09-03T19:50:42Z</time>
      </trkpt>
      <trkpt lat="43.34141" lon="3.40116">
        <ele>7</ele>
        <time>2010-09-03T19:50:42Z</time>
      </trkpt>
      <trkpt lat="43.34119" lon="3.40095">
        <ele>7</ele>
        <time>2010-09-03T19:50:42Z</time>
      </trkpt>
      <trkpt lat="43.34086" lon="3.40046">
        <ele>8</ele>
        <time>2010-09-03T19:50:42Z</time>
      </trkpt>
      <trkpt lat="43.34074" lon="3.39988">
        <ele>9</ele>
        <time>2010-09-03T19:50:42Z</time>
      </trkpt>
      <trkpt lat="43.34076" lon="3.39931">
        <ele>9</ele>
        <time>2010-09-03T19:50:42Z</time>
      </trkpt>
      <trkpt lat="43.34077" lon="3.39874">
        <ele>9</ele>
        <time>2010-09-03T19:50:42Z</time>
      </trkpt>
      <trkpt lat="43.34078" lon="3.39819">
        <ele>9</ele>
        <time>2010-09-03T19:50:42Z</time>
      </trkpt>
      <trkpt lat="43.34078" lon="3.39764">
        <ele>9</ele>
        <time>2010-09-03T19:50:42Z</time>
      </trkpt>
      <trkpt lat="43.34079" lon="3.39709">
        <ele>9</ele>
        <time>2010-09-03T19:50:42Z</time>
      </trkpt>
      <trkpt lat="43.34079" lon="3.39652">
        <ele>8</ele>
        <time>2010-09-03T19:50:42Z</time>
      </trkpt>
      <trkpt lat="43.34078" lon="3.39595">
        <ele>9</ele>
        <time>2010-09-03T19:50:42Z</time>
      </trkpt>
      <trkpt lat="43.34079" lon="3.39534">
        <ele>8</ele>
        <time>2010-09-03T19:50:42Z</time>
      </trkpt>
      <trkpt lat="43.34032" lon="3.39516">
        <ele>8</ele>
        <time>2010-09-03T19:50:42Z</time>
      </trkpt>
      <trkpt lat="43.34001" lon="3.39518">
        <ele>7</ele>
        <time>2010-09-03T19:50:42Z</time>
      </trkpt>
      <trkpt lat="43.33971" lon="3.3952">
        <ele>7</ele>
        <time>2010-09-03T19:50:42Z</time>
      </trkpt>
      <trkpt lat="43.33939" lon="3.39522">
        <ele>6</ele>
        <time>2010-09-03T19:50:42Z</time>
      </trkpt>
      <trkpt lat="43.33906" lon="3.39524">
        <ele>6</ele>
        <time>2010-09-03T19:50:42Z</time>
      </trkpt>
      <trkpt lat="43.33874" lon="3.39526">
        <ele>6</ele>
        <time>2010-09-03T19:50:42Z</time>
      </trkpt>
      <trkpt lat="43.33841" lon="3.39528">
        <ele>5</ele>
        <time>2010-09-03T19:50:42Z</time>
      </trkpt>
      <trkpt lat="43.33808" lon="3.39531">
        <ele>3</ele>
        <time>2010-09-03T19:50:42Z</time>
      </trkpt>
      <trkpt lat="43.33778" lon="3.39533">
        <ele>2</ele>
        <time>2010-09-03T19:50:42Z</time>
      </trkpt>
      <trkpt lat="43.33749" lon="3.39534">
        <ele>2</ele>
        <time>2010-09-03T19:50:42Z</time>
      </trkpt>
      <trkpt lat="43.3372" lon="3.39535">
        <ele>2</ele>
        <time>2010-09-03T19:50:42Z</time>
      </trkpt>
      <trkpt lat="43.33689" lon="3.39536">
        <ele>4</ele>
        <time>2010-09-03T19:50:42Z</time>
      </trkpt>
      <trkpt lat="43.33657" lon="3.39538">
        <ele>4</ele>
        <time>2010-09-03T19:50:42Z</time>
      </trkpt>
      <trkpt lat="43.33626" lon="3.3954">
        <ele>2</ele>
        <time>2010-09-03T19:50:42Z</time>
      </trkpt>
      <trkpt lat="43.33593" lon="3.39542">
        <ele>1</ele>
        <time>2010-09-03T19:50:42Z</time>
      </trkpt>
      <trkpt lat="43.33561" lon="3.39543">
        <ele>1</ele>
        <time>2010-09-03T19:50:42Z</time>
      </trkpt>
      <trkpt lat="43.3353" lon="3.39545">
        <ele>1</ele>
        <time>2010-09-03T19:50:42Z</time>
      </trkpt>
      <trkpt lat="43.33499" lon="3.39546">
        <ele>3</ele>
        <time>2010-09-03T19:50:42Z</time>
      </trkpt>
      <trkpt lat="43.33467" lon="3.39548">
        <ele>3</ele>
        <time>2010-09-03T19:50:42Z</time>
      </trkpt>
      <trkpt lat="43.33436" lon="3.39549">
        <ele>4</ele>
        <time>2010-09-03T19:50:42Z</time>
      </trkpt>
      <trkpt lat="43.33405" lon="3.39551">
        <ele>5</ele>
        <time>2010-09-03T19:50:42Z</time>
      </trkpt>
      <trkpt lat="43.33374" lon="3.39551">
        <ele>6</ele>
        <time>2010-09-03T19:50:42Z</time>
      </trkpt>
      <trkpt lat="43.33345" lon="3.39543">
        <ele>8</ele>
        <time>2010-09-03T19:50:42Z</time>
      </trkpt>
      <trkpt lat="43.33314" lon="3.39532">
        <ele>9</ele>
        <time>2010-09-03T19:50:42Z</time>
      </trkpt>
      <trkpt lat="43.33285" lon="3.39521">
        <ele>9</ele>
        <time>2010-09-03T19:50:42Z</time>
      </trkpt>
      <trkpt lat="43.33259" lon="3.39512">
        <ele>10</ele>
        <time>2010-09-03T19:50:42Z</time>
      </trkpt>
      <trkpt lat="43.33232" lon="3.39502">
        <ele>11</ele>
        <time>2010-09-03T19:50:42Z</time>
      </trkpt>
      <trkpt lat="43.3318" lon="3.39484">
        <ele>11</ele>
        <time>2010-09-03T19:50:42Z</time>
      </trkpt>
      <trkpt lat="43.33154" lon="3.39474">
        <ele>11</ele>
        <time>2010-09-03T19:50:42Z</time>
      </trkpt>
      <trkpt lat="43.33127" lon="3.39464">
        <ele>10</ele>
        <time>2010-09-03T19:50:42Z</time>
      </trkpt>
      <trkpt lat="43.33099" lon="3.39453">
        <ele>10</ele>
        <time>2010-09-03T19:50:42Z</time>
      </trkpt>
      <trkpt lat="43.33072" lon="3.39437">
        <ele>8</ele>
        <time>2010-09-03T19:50:42Z</time>
      </trkpt>
      <trkpt lat="43.33027" lon="3.39398">
        <ele>4</ele>
        <time>2010-09-03T19:50:42Z</time>
      </trkpt>
      <trkpt lat="43.32983" lon="3.3936">
        <ele>3</ele>
        <time>2010-09-03T19:50:42Z</time>
      </trkpt>
      <trkpt lat="43.32938" lon="3.39321">
        <ele>5</ele>
        <time>2010-09-03T19:50:42Z</time>
      </trkpt>
      <trkpt lat="43.32914" lon="3.393">
        <ele>7</ele>
        <time>2010-09-03T19:50:42Z</time>
      </trkpt>
      <trkpt lat="43.32896" lon="3.39247">
        <ele>5</ele>
        <time>2010-09-03T19:50:42Z</time>
      </trkpt>
      <trkpt lat="43.32907" lon="3.3919">
        <ele>8</ele>
        <time>2010-09-03T19:50:42Z</time>
      </trkpt>
      <trkpt lat="43.32947" lon="3.39149">
        <ele>11</ele>
        <time>2010-09-03T19:50:42Z</time>
      </trkpt>
      <trkpt lat="43.32987" lon="3.39106">
        <ele>12</ele>
        <time>2010-09-03T19:50:42Z</time>
      </trkpt>
      <trkpt lat="43.33017" lon="3.39051">
        <ele>10</ele>
        <time>2010-09-03T19:50:42Z</time>
      </trkpt>
      <trkpt lat="43.33035" lon="3.38992">
        <ele>10</ele>
        <time>2010-09-03T19:50:42Z</time>
      </trkpt>
      <trkpt lat="43.33058" lon="3.38937">
        <ele>11</ele>
        <time>2010-09-03T19:50:42Z</time>
      </trkpt>
      <trkpt lat="43.33082" lon="3.38883">
        <ele>12</ele>
        <time>2010-09-03T19:50:42Z</time>
      </trkpt>
      <trkpt lat="43.33104" lon="3.38831">
        <ele>12</ele>
        <time>2010-09-03T19:50:42Z</time>
      </trkpt>
      <trkpt lat="43.33131" lon="3.38778">
        <ele>11</ele>
        <time>2010-09-03T19:50:42Z</time>
      </trkpt>
      <trkpt lat="43.33155" lon="3.38722">
        <ele>10</ele>
        <time>2010-09-03T19:50:42Z</time>
      </trkpt>
      <trkpt lat="43.33178" lon="3.38671">
        <ele>9</ele>
        <time>2010-09-03T19:50:42Z</time>
      </trkpt>
      <trkpt lat="43.332" lon="3.3862">
        <ele>8</ele>
        <time>2010-09-03T19:50:42Z</time>
      </trkpt>
      <trkpt lat="43.3322" lon="3.38567">
        <ele>8</ele>
        <time>2010-09-03T19:50:42Z</time>
      </trkpt>
      <trkpt lat="43.33215" lon="3.38508">
        <ele>8</ele>
        <time>2010-09-03T19:50:42Z</time>
      </trkpt>
      <trkpt lat="43.33185" lon="3.3846">
        <ele>7</ele>
        <time>2010-09-03T19:50:42Z</time>
      </trkpt>
      <trkpt lat="43.33154" lon="3.38411">
        <ele>9</ele>
        <time>2010-09-03T19:50:42Z</time>
      </trkpt>
      <trkpt lat="43.33106" lon="3.38379">
        <ele>6</ele>
        <time>2010-09-03T19:50:42Z</time>
      </trkpt>
      <trkpt lat="43.33065" lon="3.38417">
        <ele>4</ele>
        <time>2010-09-03T19:50:42Z</time>
      </trkpt>
      <trkpt lat="43.3304" lon="3.38434">
        <ele>9</ele>
        <time>2010-09-03T19:50:42Z</time>
      </trkpt>
      <trkpt lat="43.33012" lon="3.38486">
        <ele>11</ele>
        <time>2010-09-03T19:50:42Z</time>
      </trkpt>
      <trkpt lat="43.32979" lon="3.38538">
        <ele>8</ele>
        <time>2010-09-03T19:50:42Z</time>
      </trkpt>
      <trkpt lat="43.32947" lon="3.38593">
        <ele>8</ele>
        <time>2010-09-03T19:50:42Z</time>
      </trkpt>
      <trkpt lat="43.32913" lon="3.38647">
        <ele>7</ele>
        <time>2010-09-03T19:50:42Z</time>
      </trkpt>
      <trkpt lat="43.32876" lon="3.38693">
        <ele>8</ele>
        <time>2010-09-03T19:50:42Z</time>
      </trkpt>
      <trkpt lat="43.32839" lon="3.38743">
        <ele>7</ele>
        <time>2010-09-03T19:50:42Z</time>
      </trkpt>
      <trkpt lat="43.32801" lon="3.38791">
        <ele>4</ele>
        <time>2010-09-03T19:50:42Z</time>
      </trkpt>
      <trkpt lat="43.32779" lon="3.38812">
        <ele>2</ele>
        <time>2010-09-03T19:50:42Z</time>
      </trkpt>
      <trkpt lat="43.32756" lon="3.38833">
        <ele>1</ele>
        <time>2010-09-03T19:50:42Z</time>
      </trkpt>
      <trkpt lat="43.32733" lon="3.38857">
        <ele>1</ele>
        <time>2010-09-03T19:50:42Z</time>
      </trkpt>
      <trkpt lat="43.32688" lon="3.38899">
        <ele>4</ele>
        <time>2010-09-03T19:50:42Z</time>
      </trkpt>
      <trkpt lat="43.32663" lon="3.38918">
        <ele>2</ele>
        <time>2010-09-03T19:50:42Z</time>
      </trkpt>
      <trkpt lat="43.32616" lon="3.38953">
        <ele>6</ele>
        <time>2010-09-03T19:50:42Z</time>
      </trkpt>
      <trkpt lat="43.32571" lon="3.38993">
        <ele>7</ele>
        <time>2010-09-03T19:50:42Z</time>
      </trkpt>
      <trkpt lat="43.32544" lon="3.39011">
        <ele>11</ele>
        <time>2010-09-03T19:50:42Z</time>
      </trkpt>
      <trkpt lat="43.32521" lon="3.3903">
        <ele>15</ele>
        <time>2010-09-03T19:50:42Z</time>
      </trkpt>
      <trkpt lat="43.32473" lon="3.39062">
        <ele>15</ele>
        <time>2010-09-03T19:50:42Z</time>
      </trkpt>
      <trkpt lat="43.32447" lon="3.39081">
        <ele>9</ele>
        <time>2010-09-03T19:50:42Z</time>
      </trkpt>
      <trkpt lat="43.32401" lon="3.39116">
        <ele>8</ele>
        <time>2010-09-03T19:50:42Z</time>
      </trkpt>
      <trkpt lat="43.32354" lon="3.39159">
        <ele>9</ele>
        <time>2010-09-03T19:50:42Z</time>
      </trkpt>
      <trkpt lat="43.32329" lon="3.39178">
        <ele>8</ele>
        <time>2010-09-03T19:50:42Z</time>
      </trkpt>
      <trkpt lat="43.32306" lon="3.392">
        <ele>8</ele>
        <time>2010-09-03T19:50:42Z</time>
      </trkpt>
      <trkpt lat="43.32281" lon="3.39221">
        <ele>7</ele>
        <time>2010-09-03T19:50:42Z</time>
      </trkpt>
      <trkpt lat="43.32258" lon="3.39239">
        <ele>6</ele>
        <time>2010-09-03T19:50:42Z</time>
      </trkpt>
      <trkpt lat="43.32211" lon="3.39272">
        <ele>6</ele>
        <time>2010-09-03T19:50:42Z</time>
      </trkpt>
      <trkpt lat="43.32186" lon="3.39292">
        <ele>9</ele>
        <time>2010-09-03T19:50:42Z</time>
      </trkpt>
      <trkpt lat="43.32143" lon="3.39327">
        <ele>11</ele>
        <time>2010-09-03T19:50:42Z</time>
      </trkpt>
      <trkpt lat="43.32119" lon="3.39346">
        <ele>9</ele>
        <time>2010-09-03T19:50:42Z</time>
      </trkpt>
      <trkpt lat="43.32073" lon="3.3938">
        <ele>11</ele>
        <time>2010-09-03T19:50:42Z</time>
      </trkpt>
      <trkpt lat="43.32029" lon="3.39421">
        <ele>9</ele>
        <time>2010-09-03T19:50:42Z</time>
      </trkpt>
      <trkpt lat="43.31984" lon="3.39459">
        <ele>5</ele>
        <time>2010-09-03T19:50:42Z</time>
      </trkpt>
      <trkpt lat="43.31958" lon="3.39474">
        <ele>6</ele>
        <time>2010-09-03T19:50:42Z</time>
      </trkpt>
      <trkpt lat="43.31912" lon="3.39508">
        <ele>8</ele>
        <time>2010-09-03T19:50:42Z</time>
      </trkpt>
      <trkpt lat="43.31868" lon="3.39548">
        <ele>7</ele>
        <time>2010-09-03T19:50:42Z</time>
      </trkpt>
      <trkpt lat="43.31824" lon="3.3959">
        <ele>5</ele>
        <time>2010-09-03T19:50:42Z</time>
      </trkpt>
      <trkpt lat="43.31775" lon="3.39623">
        <ele>3</ele>
        <time>2010-09-03T19:50:42Z</time>
      </trkpt>
      <trkpt lat="43.31753" lon="3.39645">
        <ele>2</ele>
        <time>2010-09-03T19:50:42Z</time>
      </trkpt>
      <trkpt lat="43.31728" lon="3.39663">
        <ele>2</ele>
        <time>2010-09-03T19:50:42Z</time>
      </trkpt>
      <trkpt lat="43.3168" lon="3.3969">
        <ele>4</ele>
        <time>2010-09-03T19:50:42Z</time>
      </trkpt>
      <trkpt lat="43.31655" lon="3.39708">
        <ele>6</ele>
        <time>2010-09-03T19:50:42Z</time>
      </trkpt>
      <trkpt lat="43.31632" lon="3.39728">
        <ele>7</ele>
        <time>2010-09-03T19:50:42Z</time>
      </trkpt>
      <trkpt lat="43.31585" lon="3.39768">
        <ele>7</ele>
        <time>2010-09-03T19:50:42Z</time>
      </trkpt>
      <trkpt lat="43.3156" lon="3.39788">
        <ele>6</ele>
        <time>2010-09-03T19:50:42Z</time>
      </trkpt>
      <trkpt lat="43.31534" lon="3.39809">
        <ele>4</ele>
        <time>2010-09-03T19:50:42Z</time>
      </trkpt>
      <trkpt lat="43.31507" lon="3.39829">
        <ele>3</ele>
        <time>2010-09-03T19:50:42Z</time>
      </trkpt>
      <trkpt lat="43.3148" lon="3.39848">
        <ele>3</ele>
        <time>2010-09-03T19:50:42Z</time>
      </trkpt>
      <trkpt lat="43.31454" lon="3.39869">
        <ele>4</ele>
        <time>2010-09-03T19:50:42Z</time>
      </trkpt>
      <trkpt lat="43.31429" lon="3.39891">
        <ele>3</ele>
        <time>2010-09-03T19:50:42Z</time>
      </trkpt>
      <trkpt lat="43.31404" lon="3.39911">
        <ele>3</ele>
        <time>2010-09-03T19:50:42Z</time>
      </trkpt>
      <trkpt lat="43.31378" lon="3.3993">
        <ele>2</ele>
        <time>2010-09-03T19:50:42Z</time>
      </trkpt>
      <trkpt lat="43.31351" lon="3.39948">
        <ele>3</ele>
        <time>2010-09-03T19:50:42Z</time>
      </trkpt>
      <trkpt lat="43.31324" lon="3.39968">
        <ele>4</ele>
        <time>2010-09-03T19:50:42Z</time>
      </trkpt>
      <trkpt lat="43.313" lon="3.39988">
        <ele>3</ele>
        <time>2010-09-03T19:50:42Z</time>
      </trkpt>
      <trkpt lat="43.31273" lon="3.40005">
        <ele>4</ele>
        <time>2010-09-03T19:50:42Z</time>
      </trkpt>
      <trkpt lat="43.31248" lon="3.40024">
        <ele>4</ele>
        <time>2010-09-03T19:50:42Z</time>
      </trkpt>
      <trkpt lat="43.31201" lon="3.40058">
        <ele>5</ele>
        <time>2010-09-03T19:50:42Z</time>
      </trkpt>
      <trkpt lat="43.31174" lon="3.40074">
        <ele>7</ele>
        <time>2010-09-03T19:50:42Z</time>
      </trkpt>
      <trkpt lat="43.31143" lon="3.4008">
        <ele>9</ele>
        <time>2010-09-03T19:50:42Z</time>
      </trkpt>
      <trkpt lat="43.31096" lon="3.40102">
        <ele>9</ele>
        <time>2010-09-03T19:50:42Z</time>
      </trkpt>
      <trkpt lat="43.31047" lon="3.4013">
        <ele>9</ele>
        <time>2010-09-03T19:50:42Z</time>
      </trkpt>
      <trkpt lat="43.31012" lon="3.4013">
        <ele>9</ele>
        <time>2010-09-03T19:50:42Z</time>
      </trkpt>
      <trkpt lat="43.31015" lon="3.40089">
        <ele>7</ele>
        <time>2010-09-03T19:50:42Z</time>
      </trkpt>
      <trkpt lat="43.31007" lon="3.40029">
        <ele>1</ele>
        <time>2010-09-03T19:50:42Z</time>
      </trkpt>
      <trkpt lat="43.31016" lon="3.39969">
        <ele>-3</ele>
        <time>2010-09-03T19:50:42Z</time>
      </trkpt>
      <trkpt lat="43.31023" lon="3.39914">
        <ele>-2</ele>
        <time>2010-09-03T19:50:42Z</time>
      </trkpt>
      <trkpt lat="43.30996" lon="3.39903">
        <ele>-2</ele>
        <time>2010-09-03T19:50:42Z</time>
      </trkpt>
      <trkpt lat="43.30967" lon="3.39893">
        <ele>-1</ele>
        <time>2010-09-03T19:50:42Z</time>
      </trkpt>
      <trkpt lat="43.3094" lon="3.39887">
        <ele>1</ele>
        <time>2010-09-03T19:50:42Z</time>
      </trkpt>
      <trkpt lat="43.30911" lon="3.39885">
        <ele>1</ele>
        <time>2010-09-03T19:50:42Z</time>
      </trkpt>
      <trkpt lat="43.30882" lon="3.39884">
        <ele>2</ele>
        <time>2010-09-03T19:50:42Z</time>
      </trkpt>
      <trkpt lat="43.30852" lon="3.39882">
        <ele>2</ele>
        <time>2010-09-03T19:50:42Z</time>
      </trkpt>
      <trkpt lat="43.30821" lon="3.39876">
        <ele>4</ele>
        <time>2010-09-03T19:50:42Z</time>
      </trkpt>
      <trkpt lat="43.30794" lon="3.39859">
        <ele>4</ele>
        <time>2010-09-03T19:50:42Z</time>
      </trkpt>
      <trkpt lat="43.30775" lon="3.39833">
        <ele>3</ele>
        <time>2010-09-03T19:50:42Z</time>
      </trkpt>
      <trkpt lat="43.30739" lon="3.39787">
        <ele>1</ele>
        <time>2010-09-03T19:50:42Z</time>
      </trkpt>
      <trkpt lat="43.30697" lon="3.39747">
        <ele>3.1</ele>
        <time>2010-09-03T19:50:42Z</time>
      </trkpt>
      <trkpt lat="43.30673" lon="3.39726">
        <ele>-1</ele>
        <time>2010-09-03T19:50:42Z</time>
      </trkpt>
      <trkpt lat="43.30642" lon="3.39673">
        <ele>-3</ele>
        <time>2010-09-03T19:50:42Z</time>
      </trkpt>
      <trkpt lat="43.3061" lon="3.39619">
        <ele>-3</ele>
        <time>2010-09-03T19:50:42Z</time>
      </trkpt>
      <trkpt lat="43.30584" lon="3.39604">
        <ele>-2</ele>
        <time>2010-09-03T19:50:42Z</time>
      </trkpt>
      <trkpt lat="43.30553" lon="3.39592">
        <ele>-2</ele>
        <time>2010-09-03T19:50:42Z</time>
      </trkpt>
      <trkpt lat="43.30524" lon="3.39579">
        <ele>-3</ele>
        <time>2010-09-03T19:50:42Z</time>
      </trkpt>
      <trkpt lat="43.30498" lon="3.39567">
        <ele>-2</ele>
        <time>2010-09-03T19:50:42Z</time>
      </trkpt>
      <trkpt lat="43.30468" lon="3.39553">
        <ele>-1</ele>
        <time>2010-09-03T19:50:42Z</time>
      </trkpt>
      <trkpt lat="43.30438" lon="3.39542">
        <ele>-3</ele>
        <time>2010-09-03T19:50:42Z</time>
      </trkpt>
      <trkpt lat="43.30414" lon="3.39521">
        <ele>-6</ele>
        <time>2010-09-03T19:50:42Z</time>
      </trkpt>
      <trkpt lat="43.30422" lon="3.3947">
        <ele>-5</ele>
        <time>2010-09-03T19:50:42Z</time>
      </trkpt>
      <trkpt lat="43.30431" lon="3.39411">
        <ele>-4</ele>
        <time>2010-09-03T19:50:42Z</time>
      </trkpt>
      <trkpt lat="43.3044" lon="3.39355">
        <ele>-6</ele>
        <time>2010-09-03T19:50:42Z</time>
      </trkpt>
      <trkpt lat="43.30451" lon="3.39296">
        <ele>-5</ele>
        <time>2010-09-03T19:50:42Z</time>
      </trkpt>
      <trkpt lat="43.30464" lon="3.39236">
        <ele>-5</ele>
        <time>2010-09-03T19:50:42Z</time>
      </trkpt>
      <trkpt lat="43.30477" lon="3.39174">
        <ele>-3</ele>
        <time>2010-09-03T19:50:42Z</time>
      </trkpt>
      <trkpt lat="43.30456" lon="3.39133">
        <ele>-3</ele>
        <time>2010-09-03T19:50:42Z</time>
      </trkpt>
      <trkpt lat="43.30426" lon="3.3913">
        <ele>-4</ele>
        <time>2010-09-03T19:50:42Z</time>
      </trkpt>
      <trkpt lat="43.30395" lon="3.39121">
        <ele>-3</ele>
        <time>2010-09-03T19:50:42Z</time>
      </trkpt>
      <trkpt lat="43.30367" lon="3.39106">
        <ele>-1</ele>
        <time>2010-09-03T19:50:42Z</time>
      </trkpt>
      <trkpt lat="43.30346" lon="3.39049">
        <ele>2</ele>
        <time>2010-09-03T19:50:42Z</time>
      </trkpt>
      <trkpt lat="43.30361" lon="3.38993">
        <ele>6</ele>
        <time>2010-09-03T19:50:42Z</time>
      </trkpt>
      <trkpt lat="43.3038" lon="3.38937">
        <ele>8</ele>
        <time>2010-09-03T19:50:42Z</time>
      </trkpt>
      <trkpt lat="43.30399" lon="3.38877">
        <ele>7</ele>
        <time>2010-09-03T19:50:42Z</time>
      </trkpt>
      <trkpt lat="43.30418" lon="3.38817">
        <ele>6</ele>
        <time>2010-09-03T19:50:42Z</time>
      </trkpt>
      <trkpt lat="43.30437" lon="3.38759">
        <ele>6</ele>
        <time>2010-09-03T19:50:42Z</time>
      </trkpt>
      <trkpt lat="43.30457" lon="3.38702">
        <ele>7</ele>
        <time>2010-09-03T19:50:42Z</time>
      </trkpt>
      <trkpt lat="43.30475" lon="3.38646">
        <ele>7</ele>
        <time>2010-09-03T19:50:42Z</time>
      </trkpt>
      <trkpt lat="43.30492" lon="3.38588">
        <ele>7</ele>
        <time>2010-09-03T19:50:42Z</time>
      </trkpt>
      <trkpt lat="43.30508" lon="3.38533">
        <ele>8</ele>
        <time>2010-09-03T19:50:42Z</time>
      </trkpt>
      <trkpt lat="43.30525" lon="3.38475">
        <ele>10</ele>
        <time>2010-09-03T19:50:42Z</time>
      </trkpt>
      <trkpt lat="43.30546" lon="3.38417">
        <ele>13</ele>
        <time>2010-09-03T19:50:42Z</time>
      </trkpt>
      <trkpt lat="43.3057" lon="3.3836">
        <ele>15</ele>
        <time>2010-09-03T19:50:42Z</time>
      </trkpt>
      <trkpt lat="43.30586" lon="3.38306">
        <ele>16</ele>
        <time>2010-09-03T19:50:42Z</time>
      </trkpt>
      <trkpt lat="43.30553" lon="3.38253">
        <ele>15</ele>
        <time>2010-09-03T19:50:42Z</time>
      </trkpt>
      <trkpt lat="43.30521" lon="3.38208">
        <ele>15</ele>
        <time>2010-09-03T19:50:42Z</time>
      </trkpt>
      <trkpt lat="43.30492" lon="3.38153">
        <ele>15</ele>
        <time>2010-09-03T19:50:42Z</time>
      </trkpt>
      <trkpt lat="43.30462" lon="3.38103">
        <ele>15</ele>
        <time>2010-09-03T19:50:42Z</time>
      </trkpt>
      <trkpt lat="43.30428" lon="3.38048">
        <ele>14</ele>
        <time>2010-09-03T19:50:42Z</time>
      </trkpt>
      <trkpt lat="43.30408" lon="3.38022">
        <ele>12</ele>
        <time>2010-09-03T19:50:42Z</time>
      </trkpt>
      <trkpt lat="43.30386" lon="3.37995">
        <ele>11</ele>
        <time>2010-09-03T19:50:42Z</time>
      </trkpt>
      <trkpt lat="43.30365" lon="3.37969">
        <ele>9</ele>
        <time>2010-09-03T19:50:42Z</time>
      </trkpt>
      <trkpt lat="43.30344" lon="3.37944">
        <ele>8</ele>
        <time>2010-09-03T19:50:42Z</time>
      </trkpt>
      <trkpt lat="43.30305" lon="3.37902">
        <ele>8</ele>
        <time>2010-09-03T19:50:42Z</time>
      </trkpt>
      <trkpt lat="43.30265" lon="3.37858">
        <ele>8</ele>
        <time>2010-09-03T19:50:42Z</time>
      </trkpt>
      <trkpt lat="43.30226" lon="3.37815">
        <ele>8</ele>
        <time>2010-09-03T19:50:42Z</time>
      </trkpt>
      <trkpt lat="43.30183" lon="3.37775">
        <ele>9</ele>
        <time>2010-09-03T19:50:42Z</time>
      </trkpt>
      <trkpt lat="43.30136" lon="3.37739">
        <ele>6</ele>
        <time>2010-09-03T19:50:42Z</time>
      </trkpt>
      <trkpt lat="43.30112" lon="3.37721">
        <ele>5</ele>
        <time>2010-09-03T19:50:42Z</time>
      </trkpt>
      <trkpt lat="43.30066" lon="3.37683">
        <ele>4</ele>
        <time>2010-09-03T19:50:42Z</time>
      </trkpt>
      <trkpt lat="43.30034" lon="3.37638">
        <ele>1</ele>
        <time>2010-09-03T19:50:42Z</time>
      </trkpt>
      <trkpt lat="43.30004" lon="3.37652">
        <ele>1</ele>
        <time>2010-09-03T19:50:42Z</time>
      </trkpt>
      <trkpt lat="43.29974" lon="3.37659">
        <ele>-1</ele>
        <time>2010-09-03T19:50:42Z</time>
      </trkpt>
      <trkpt lat="43.29945" lon="3.37663">
        <ele>-5</ele>
        <time>2010-09-03T19:50:42Z</time>
      </trkpt>
      <trkpt lat="43.29914" lon="3.37667">
        <ele>-9</ele>
        <time>2010-09-03T19:50:42Z</time>
      </trkpt>
      <trkpt lat="43.29885" lon="3.37672">
        <ele>-8</ele>
        <time>2010-09-03T19:50:42Z</time>
      </trkpt>
      <trkpt lat="43.29853" lon="3.37672">
        <ele>-6</ele>
        <time>2010-09-03T19:50:42Z</time>
      </trkpt>
      <trkpt lat="43.29824" lon="3.37677">
        <ele>-6</ele>
        <time>2010-09-03T19:50:42Z</time>
      </trkpt>
      <trkpt lat="43.29795" lon="3.3768">
        <ele>-5</ele>
        <time>2010-09-03T19:50:42Z</time>
      </trkpt>
      <trkpt lat="43.29765" lon="3.37685">
        <ele>-4</ele>
        <time>2010-09-03T19:50:42Z</time>
      </trkpt>
      <trkpt lat="43.29736" lon="3.37682">
        <ele>-4</ele>
        <time>2010-09-03T19:50:42Z</time>
      </trkpt>
      <trkpt lat="43.29708" lon="3.37687">
        <ele>-2</ele>
        <time>2010-09-03T19:50:42Z</time>
      </trkpt>
      <trkpt lat="43.29677" lon="3.37689">
        <ele>1.9</ele>
        <time>2010-09-03T19:50:42Z</time>
      </trkpt>
      <trkpt lat="43.29647" lon="3.37691">
        <ele>1</ele>
        <time>2010-09-03T19:50:42Z</time>
      </trkpt>
      <trkpt lat="43.29618" lon="3.37694">
        <ele>1</ele>
        <time>2010-09-03T19:50:42Z</time>
      </trkpt>
      <trkpt lat="43.29587" lon="3.37695">
        <ele>3</ele>
        <time>2010-09-03T19:50:42Z</time>
      </trkpt>
      <trkpt lat="43.29555" lon="3.37697">
        <ele>5</ele>
        <time>2010-09-03T19:50:42Z</time>
      </trkpt>
      <trkpt lat="43.29527" lon="3.37703">
        <ele>4</ele>
        <time>2010-09-03T19:50:42Z</time>
      </trkpt>
      <trkpt lat="43.29498" lon="3.37706">
        <ele>4</ele>
        <time>2010-09-03T19:50:42Z</time>
      </trkpt>
      <trkpt lat="43.2947" lon="3.37708">
        <ele>3</ele>
        <time>2010-09-03T19:50:42Z</time>
      </trkpt>
      <trkpt lat="43.29442" lon="3.37712">
        <ele>3</ele>
        <time>2010-09-03T19:50:42Z</time>
      </trkpt>
      <trkpt lat="43.29413" lon="3.37716">
        <ele>3</ele>
        <time>2010-09-03T19:50:42Z</time>
      </trkpt>
      <trkpt lat="43.29384" lon="3.37724">
        <ele>4</ele>
        <time>2010-09-03T19:50:42Z</time>
      </trkpt>
      <trkpt lat="43.29377" lon="3.37778">
        <ele>6</ele>
        <time>2010-09-03T19:50:42Z</time>
      </trkpt>
      <trkpt lat="43.29387" lon="3.37836">
        <ele>5</ele>
        <time>2010-09-03T19:50:42Z</time>
      </trkpt>
      <trkpt lat="43.29396" lon="3.37894">
        <ele>5</ele>
        <time>2010-09-03T19:50:42Z</time>
      </trkpt>
      <trkpt lat="43.29405" lon="3.37954">
        <ele>5</ele>
        <time>2010-09-03T19:50:42Z</time>
      </trkpt>
      <trkpt lat="43.29415" lon="3.38014">
        <ele>5</ele>
        <time>2010-09-03T19:50:42Z</time>
      </trkpt>
      <trkpt lat="43.29423" lon="3.38078">
        <ele>4</ele>
        <time>2010-09-03T19:50:42Z</time>
      </trkpt>
      <trkpt lat="43.29433" lon="3.38139">
        <ele>3</ele>
        <time>2010-09-03T19:50:42Z</time>
      </trkpt>
      <trkpt lat="43.29442" lon="3.38198">
        <ele>3</ele>
        <time>2010-09-03T19:50:42Z</time>
      </trkpt>
      <trkpt lat="43.2945" lon="3.38254">
        <ele>2</ele>
        <time>2010-09-03T19:50:42Z</time>
      </trkpt>
      <trkpt lat="43.29458" lon="3.38312">
        <ele>1</ele>
        <time>2010-09-03T19:50:42Z</time>
      </trkpt>
      <trkpt lat="43.29467" lon="3.38373">
        <ele>-1</ele>
        <time>2010-09-03T19:50:42Z</time>
      </trkpt>
      <trkpt lat="43.29475" lon="3.38433">
        <ele>2.5</ele>
        <time>2010-09-03T19:50:42Z</time>
      </trkpt>
      <trkpt lat="43.29484" lon="3.38493">
        <ele>2</ele>
        <time>2010-09-03T19:50:42Z</time>
      </trkpt>
      <trkpt lat="43.29491" lon="3.38557">
        <ele>-3</ele>
        <time>2010-09-03T19:50:42Z</time>
      </trkpt>
      <trkpt lat="43.29498" lon="3.38623">
        <ele>-3</ele>
        <time>2010-09-03T19:50:42Z</time>
      </trkpt>
      <trkpt lat="43.29506" lon="3.38686">
        <ele>-3</ele>
        <time>2010-09-03T19:50:42Z</time>
      </trkpt>
      <trkpt lat="43.29517" lon="3.38746">
        <ele>-1</ele>
        <time>2010-09-03T19:50:42Z</time>
      </trkpt>
      <trkpt lat="43.29528" lon="3.38804">
        <ele>-2</ele>
        <time>2010-09-03T19:50:42Z</time>
      </trkpt>
      <trkpt lat="43.29541" lon="3.38865">
        <ele>2</ele>
        <time>2010-09-03T19:50:42Z</time>
      </trkpt>
      <trkpt lat="43.29553" lon="3.38926">
        <ele>1</ele>
        <time>2010-09-03T19:50:42Z</time>
      </trkpt>
      <trkpt lat="43.29567" lon="3.38983">
        <ele>1</ele>
        <time>2010-09-03T19:50:42Z</time>
      </trkpt>
      <trkpt lat="43.29583" lon="3.3904">
        <ele>2</ele>
        <time>2010-09-03T19:50:42Z</time>
      </trkpt>
      <trkpt lat="43.296" lon="3.39099">
        <ele>1</ele>
        <time>2010-09-03T19:50:42Z</time>
      </trkpt>
      <trkpt lat="43.29619" lon="3.39158">
        <ele>3</ele>
        <time>2010-09-03T19:50:42Z</time>
      </trkpt>
      <trkpt lat="43.2964" lon="3.39219">
        <ele>5</ele>
        <time>2010-09-03T19:50:42Z</time>
      </trkpt>
      <trkpt lat="43.29664" lon="3.39277">
        <ele>3</ele>
        <time>2010-09-03T19:50:42Z</time>
      </trkpt>
      <trkpt lat="43.29693" lon="3.39324">
        <ele>-13</ele>
        <time>2010-09-03T19:50:42Z</time>
      </trkpt>
      <trkpt lat="43.29716" lon="3.39383">
        <ele>-14</ele>
        <time>2010-09-03T19:50:42Z</time>
      </trkpt>
      <trkpt lat="43.29739" lon="3.39441">
        <ele>-12</ele>
        <time>2010-09-03T19:50:42Z</time>
      </trkpt>
      <trkpt lat="43.29761" lon="3.39503">
        <ele>3.1</ele>
        <time>2010-09-03T19:50:42Z</time>
      </trkpt>
      <trkpt lat="43.29786" lon="3.39561">
        <ele>4</ele>
        <time>2010-09-03T19:50:42Z</time>
      </trkpt>
      <trkpt lat="43.29811" lon="3.39619">
        <ele>8</ele>
        <time>2010-09-03T19:50:42Z</time>
      </trkpt>
      <trkpt lat="43.29832" lon="3.39673">
        <ele>7</ele>
        <time>2010-09-03T19:50:42Z</time>
      </trkpt>
      <trkpt lat="43.29857" lon="3.39725">
        <ele>6</ele>
        <time>2010-09-03T19:50:42Z</time>
      </trkpt>
      <trkpt lat="43.29881" lon="3.39775">
        <ele>4</ele>
        <time>2010-09-03T19:50:42Z</time>
      </trkpt>
      <trkpt lat="43.29904" lon="3.39832">
        <ele>-1</ele>
        <time>2010-09-03T19:50:42Z</time>
      </trkpt>
      <trkpt lat="43.29928" lon="3.39887">
        <ele>-3</ele>
        <time>2010-09-03T19:50:42Z</time>
      </trkpt>
      <trkpt lat="43.29952" lon="3.39943">
        <ele>3</ele>
        <time>2010-09-03T19:50:42Z</time>
      </trkpt>
      <trkpt lat="43.29973" lon="3.39997">
        <ele>2</ele>
        <time>2010-09-03T19:50:42Z</time>
      </trkpt>
      <trkpt lat="43.29997" lon="3.40053">
        <ele>5</ele>
        <time>2010-09-03T19:50:42Z</time>
      </trkpt>
      <trkpt lat="43.30021" lon="3.4011">
        <ele>4</ele>
        <time>2010-09-03T19:50:42Z</time>
      </trkpt>
      <trkpt lat="43.30046" lon="3.40163">
        <ele>1</ele>
        <time>2010-09-03T19:50:42Z</time>
      </trkpt>
      <trkpt lat="43.30068" lon="3.40221">
        <ele>3</ele>
        <time>2010-09-03T19:50:42Z</time>
      </trkpt>
      <trkpt lat="43.3009" lon="3.40276">
        <ele>-4</ele>
        <time>2010-09-03T19:50:42Z</time>
      </trkpt>
      <trkpt lat="43.30104" lon="3.40333">
        <ele>-4</ele>
        <time>2010-09-03T19:50:42Z</time>
      </trkpt>
      <trkpt lat="43.30102" lon="3.40388">
        <ele>-5</ele>
        <time>2010-09-03T19:50:42Z</time>
      </trkpt>
      <trkpt lat="43.30112" lon="3.40447">
        <ele>-4</ele>
        <time>2010-09-03T19:50:42Z</time>
      </trkpt>
      <trkpt lat="43.301" lon="3.40486">
        <ele>3.4</ele>
        <time>2010-09-03T19:50:42Z</time>
      </trkpt>
      <trkpt lat="43.30112" lon="3.40551">
        <ele>-4</ele>
        <time>2010-09-03T19:50:42Z</time>
      </trkpt>
      <trkpt lat="43.30125" lon="3.40612">
        <ele>-6</ele>
        <time>2010-09-03T19:50:42Z</time>
      </trkpt>
      <trkpt lat="43.30134" lon="3.40674">
        <ele>-9</ele>
        <time>2010-09-03T19:50:42Z</time>
      </trkpt>
      <trkpt lat="43.30139" lon="3.40737">
        <ele>-12</ele>
        <time>2010-09-03T19:50:42Z</time>
      </trkpt>
      <trkpt lat="43.30142" lon="3.40796">
        <ele>-10</ele>
        <time>2010-09-03T19:50:42Z</time>
      </trkpt>
      <trkpt lat="43.30146" lon="3.40853">
        <ele>-12</ele>
        <time>2010-09-03T19:50:42Z</time>
      </trkpt>
      <trkpt lat="43.30149" lon="3.40915">
        <ele>-10</ele>
        <time>2010-09-03T19:50:42Z</time>
      </trkpt>
      <trkpt lat="43.30156" lon="3.40973">
        <ele>-11</ele>
        <time>2010-09-03T19:50:42Z</time>
      </trkpt>
      <trkpt lat="43.30161" lon="3.41029">
        <ele>-10</ele>
        <time>2010-09-03T19:50:42Z</time>
      </trkpt>
      <trkpt lat="43.30165" lon="3.41093">
        <ele>-8</ele>
        <time>2010-09-03T19:50:42Z</time>
      </trkpt>
      <trkpt lat="43.30169" lon="3.41152">
        <ele>-8</ele>
        <time>2010-09-03T19:50:42Z</time>
      </trkpt>
      <trkpt lat="43.30174" lon="3.41214">
        <ele>-7</ele>
        <time>2010-09-03T19:50:42Z</time>
      </trkpt>
      <trkpt lat="43.30178" lon="3.41277">
        <ele>-8</ele>
        <time>2010-09-03T19:50:42Z</time>
      </trkpt>
      <trkpt lat="43.30182" lon="3.41331">
        <ele>-9</ele>
        <time>2010-09-03T19:50:42Z</time>
      </trkpt>
      <trkpt lat="43.30186" lon="3.41395">
        <ele>-8</ele>
        <time>2010-09-03T19:50:42Z</time>
      </trkpt>
      <trkpt lat="43.30191" lon="3.41461">
        <ele>-7</ele>
        <time>2010-09-03T19:50:42Z</time>
      </trkpt>
      <trkpt lat="43.30193" lon="3.41519">
        <ele>-5</ele>
        <time>2010-09-03T19:50:42Z</time>
      </trkpt>
      <trkpt lat="43.30196" lon="3.41582">
        <ele>-8</ele>
        <time>2010-09-03T19:50:42Z</time>
      </trkpt>
      <trkpt lat="43.30202" lon="3.41645">
        <ele>-8</ele>
        <time>2010-09-03T19:50:42Z</time>
      </trkpt>
      <trkpt lat="43.30201" lon="3.417">
        <ele>-8</ele>
        <time>2010-09-03T19:50:42Z</time>
      </trkpt>
      <trkpt lat="43.30195" lon="3.41754">
        <ele>-2</ele>
        <time>2010-09-03T19:50:42Z</time>
      </trkpt>
      <trkpt lat="43.30204" lon="3.41812">
        <ele>-4</ele>
        <time>2010-09-03T19:50:42Z</time>
      </trkpt>
      <trkpt lat="43.30198" lon="3.41874">
        <ele>-3</ele>
        <time>2010-09-03T19:50:42Z</time>
      </trkpt>
      <trkpt lat="43.30207" lon="3.41929">
        <ele>-3</ele>
        <time>2010-09-03T19:50:42Z</time>
      </trkpt>
      <trkpt lat="43.30222" lon="3.41987">
        <ele>-1</ele>
        <time>2010-09-03T19:50:42Z</time>
      </trkpt>
      <trkpt lat="43.30227" lon="3.42044">
        <ele>-4</ele>
        <time>2010-09-03T19:50:42Z</time>
      </trkpt>
      <trkpt lat="43.30232" lon="3.42101">
        <ele>-5</ele>
        <time>2010-09-03T19:50:42Z</time>
      </trkpt>
      <trkpt lat="43.30236" lon="3.42158">
        <ele>-5</ele>
        <time>2010-09-03T19:50:42Z</time>
      </trkpt>
      <trkpt lat="43.30241" lon="3.42217">
        <ele>-4</ele>
        <time>2010-09-03T19:50:42Z</time>
      </trkpt>
      <trkpt lat="43.30244" lon="3.42274">
        <ele>-5</ele>
        <time>2010-09-03T19:50:42Z</time>
      </trkpt>
      <trkpt lat="43.30247" lon="3.42335">
        <ele>-3</ele>
        <time>2010-09-03T19:50:42Z</time>
      </trkpt>
      <trkpt lat="43.30248" lon="3.42394">
        <ele>1</ele>
        <time>2010-09-03T19:50:42Z</time>
      </trkpt>
      <trkpt lat="43.30255" lon="3.42448">
        <ele>-2</ele>
        <time>2010-09-03T19:50:42Z</time>
      </trkpt>
      <trkpt lat="43.3026" lon="3.42503">
        <ele>-4</ele>
        <time>2010-09-03T19:50:42Z</time>
      </trkpt>
      <trkpt lat="43.30265" lon="3.4256">
        <ele>-3</ele>
        <time>2010-09-03T19:50:42Z</time>
      </trkpt>
      <trkpt lat="43.30267" lon="3.42615">
        <ele>-1</ele>
        <time>2010-09-03T19:50:42Z</time>
      </trkpt>
      <trkpt lat="43.30271" lon="3.42673">
        <ele>-2</ele>
        <time>2010-09-03T19:50:42Z</time>
      </trkpt>
      <trkpt lat="43.30276" lon="3.4273">
        <ele>-4</ele>
        <time>2010-09-03T19:50:42Z</time>
      </trkpt>
      <trkpt lat="43.30279" lon="3.4279">
        <ele>-3</ele>
        <time>2010-09-03T19:50:42Z</time>
      </trkpt>
      <trkpt lat="43.30283" lon="3.42848">
        <ele>-1</ele>
        <time>2010-09-03T19:50:42Z</time>
      </trkpt>
      <trkpt lat="43.30288" lon="3.42906">
        <ele>2</ele>
        <time>2010-09-03T19:50:42Z</time>
      </trkpt>
      <trkpt lat="43.30271" lon="3.42955">
        <ele>1</ele>
        <time>2010-09-03T19:50:42Z</time>
      </trkpt>
      <trkpt lat="43.30272" lon="3.43019">
        <ele>-1</ele>
        <time>2010-09-03T19:50:42Z</time>
      </trkpt>
      <trkpt lat="43.30294" lon="3.43073">
        <ele>-2</ele>
        <time>2010-09-03T19:50:42Z</time>
      </trkpt>
      <trkpt lat="43.30305" lon="3.43126">
        <ele>1</ele>
        <time>2010-09-03T19:50:42Z</time>
      </trkpt>
      <trkpt lat="43.30308" lon="3.4319">
        <ele>2</ele>
        <time>2010-09-03T19:50:42Z</time>
      </trkpt>
      <trkpt lat="43.30312" lon="3.4325">
        <ele>-4</ele>
        <time>2010-09-03T19:50:42Z</time>
      </trkpt>
      <trkpt lat="43.30317" lon="3.43314">
        <ele>-4</ele>
        <time>2010-09-03T19:50:42Z</time>
      </trkpt>
      <trkpt lat="43.30325" lon="3.43375">
        <ele>-5</ele>
        <time>2010-09-03T19:50:42Z</time>
      </trkpt>
      <trkpt lat="43.3034" lon="3.43437">
        <ele>-7</ele>
        <time>2010-09-03T19:50:42Z</time>
      </trkpt>
      <trkpt lat="43.30361" lon="3.43495">
        <ele>-9</ele>
        <time>2010-09-03T19:50:42Z</time>
      </trkpt>
      <trkpt lat="43.3039" lon="3.43551">
        <ele>-7</ele>
        <time>2010-09-03T19:50:42Z</time>
      </trkpt>
      <trkpt lat="43.30431" lon="3.43591">
        <ele>3</ele>
        <time>2010-09-03T19:50:42Z</time>
      </trkpt>
      <trkpt lat="43.30466" lon="3.43638">
        <ele>7</ele>
        <time>2010-09-03T19:50:42Z</time>
      </trkpt>
      <trkpt lat="43.30494" lon="3.43653">
        <ele>6</ele>
        <time>2010-09-03T19:50:42Z</time>
      </trkpt>
      <trkpt lat="43.30547" lon="3.43682">
        <ele>1.4</ele>
        <time>2010-09-03T19:50:42Z</time>
      </trkpt>
      <trkpt lat="43.30573" lon="3.43696">
        <ele>-3</ele>
        <time>2010-09-03T19:50:42Z</time>
      </trkpt>
      <trkpt lat="43.306" lon="3.43704">
        <ele>-5</ele>
        <time>2010-09-03T19:50:42Z</time>
      </trkpt>
      <trkpt lat="43.30625" lon="3.43719">
        <ele>-5</ele>
        <time>2010-09-03T19:50:42Z</time>
      </trkpt>
      <trkpt lat="43.3065" lon="3.43733">
        <ele>-4</ele>
        <time>2010-09-03T19:50:42Z</time>
      </trkpt>
      <trkpt lat="43.30679" lon="3.43743">
        <ele>-2</ele>
        <time>2010-09-03T19:50:42Z</time>
      </trkpt>
      <trkpt lat="43.30705" lon="3.43752">
        <ele>2</ele>
        <time>2010-09-03T19:50:42Z</time>
      </trkpt>
      <trkpt lat="43.30733" lon="3.43763">
        <ele>1.7</ele>
        <time>2010-09-03T19:50:42Z</time>
      </trkpt>
      <trkpt lat="43.30781" lon="3.43792">
        <ele>3</ele>
        <time>2010-09-03T19:50:42Z</time>
      </trkpt>
      <trkpt lat="43.30832" lon="3.43819">
        <ele>5</ele>
        <time>2010-09-03T19:50:42Z</time>
      </trkpt>
      <trkpt lat="43.30858" lon="3.43833">
        <ele>3</ele>
        <time>2010-09-03T19:50:42Z</time>
      </trkpt>
      <trkpt lat="43.30885" lon="3.43846">
        <ele>-1</ele>
        <time>2010-09-03T19:50:42Z</time>
      </trkpt>
      <trkpt lat="43.30912" lon="3.43857">
        <ele>-2</ele>
        <time>2010-09-03T19:50:42Z</time>
      </trkpt>
      <trkpt lat="43.30939" lon="3.43868">
        <ele>-1</ele>
        <time>2010-09-03T19:50:42Z</time>
      </trkpt>
      <trkpt lat="43.30966" lon="3.43881">
        <ele>-1</ele>
        <time>2010-09-03T19:50:42Z</time>
      </trkpt>
      <trkpt lat="43.30994" lon="3.43891">
        <ele>-1</ele>
        <time>2010-09-03T19:50:42Z</time>
      </trkpt>
      <trkpt lat="43.31023" lon="3.439">
        <ele>-1</ele>
        <time>2010-09-03T19:50:42Z</time>
      </trkpt>
      <trkpt lat="43.31052" lon="3.43908">
        <ele>-1</ele>
        <time>2010-09-03T19:50:42Z</time>
      </trkpt>
      <trkpt lat="43.31079" lon="3.43919">
        <ele>-2</ele>
        <time>2010-09-03T19:50:42Z</time>
      </trkpt>
      <trkpt lat="43.31105" lon="3.43929">
        <ele>4</ele>
        <time>2010-09-03T19:50:42Z</time>
      </trkpt>
      <trkpt lat="43.31131" lon="3.43943">
        <ele>6</ele>
        <time>2010-09-03T19:50:42Z</time>
      </trkpt>
      <trkpt lat="43.31156" lon="3.4396">
        <ele>4</ele>
        <time>2010-09-03T19:50:42Z</time>
      </trkpt>
      <trkpt lat="43.3118" lon="3.43977">
        <ele>4</ele>
        <time>2010-09-03T19:50:42Z</time>
      </trkpt>
      <trkpt lat="43.31208" lon="3.43991">
        <ele>4</ele>
        <time>2010-09-03T19:50:42Z</time>
      </trkpt>
      <trkpt lat="43.31252" lon="3.44027">
        <ele>2</ele>
        <time>2010-09-03T19:50:42Z</time>
      </trkpt>
      <trkpt lat="43.31278" lon="3.44044">
        <ele>-1</ele>
        <time>2010-09-03T19:50:42Z</time>
      </trkpt>
      <trkpt lat="43.31305" lon="3.44057">
        <ele>-2</ele>
        <time>2010-09-03T19:50:42Z</time>
      </trkpt>
      <trkpt lat="43.31333" lon="3.44064">
        <ele>-1</ele>
        <time>2010-09-03T19:50:42Z</time>
      </trkpt>
      <trkpt lat="43.31361" lon="3.44069">
        <ele>1</ele>
        <time>2010-09-03T19:50:42Z</time>
      </trkpt>
      <trkpt lat="43.31389" lon="3.44067">
        <ele>1</ele>
        <time>2010-09-03T19:50:42Z</time>
      </trkpt>
      <trkpt lat="43.31418" lon="3.44067">
        <ele>3</ele>
        <time>2010-09-03T19:50:42Z</time>
      </trkpt>
      <trkpt lat="43.31449" lon="3.4407">
        <ele>1.5</ele>
        <time>2010-09-03T19:50:42Z</time>
      </trkpt>
      <trkpt lat="43.31502" lon="3.44058">
        <ele>-1</ele>
        <time>2010-09-03T19:50:42Z</time>
      </trkpt>
      <trkpt lat="43.31534" lon="3.44106">
        <ele>8</ele>
        <time>2010-09-03T19:50:42Z</time>
      </trkpt>
      <trkpt lat="43.31554" lon="3.44132">
        <ele>12</ele>
        <time>2010-09-03T19:50:42Z</time>
      </trkpt>
      <trkpt lat="43.31575" lon="3.44196">
        <ele>3</ele>
        <time>2010-09-03T19:50:42Z</time>
      </trkpt>
      <trkpt lat="43.31594" lon="3.44302">
        <ele>1.6</ele>
      </trkpt>
      <trkpt lat="43.31613" lon="3.44407">
        <ele>2.3</ele>
      </trkpt>
      <trkpt lat="43.31632" lon="3.44513">
        <ele>1.3</ele>
      </trkpt>
      <trkpt lat="43.3165" lon="3.44618">
        <ele>1.5</ele>
      </trkpt>
      <trkpt lat="43.31669" lon="3.44724">
        <ele>2.9</ele>
      </trkpt>
      <trkpt lat="43.31688" lon="3.44829">
        <ele>3</ele>
        <time>2010-09-03T19:50:42Z</time>
      </trkpt>
      <trkpt lat="43.31706" lon="3.44943">
        <ele>1.6</ele>
      </trkpt>
      <trkpt lat="43.31723" lon="3.45057">
        <ele>3</ele>
      </trkpt>
      <trkpt lat="43.31741" lon="3.45172">
        <ele>2</ele>
      </trkpt>
      <trkpt lat="43.31759" lon="3.45286">
        <ele>1.4</ele>
      </trkpt>
      <trkpt lat="43.31777" lon="3.454">
        <ele>2.6</ele>
      </trkpt>
      <trkpt lat="43.31794" lon="3.45514">
        <ele>2.3</ele>
      </trkpt>
      <trkpt lat="43.31812" lon="3.45628">
        <ele>3</ele>
        <time>2010-09-03T19:50:42Z</time>
      </trkpt>
      <trkpt lat="43.31833" lon="3.45748">
        <ele>3</ele>
      </trkpt>
      <trkpt lat="43.31854" lon="3.45867">
        <ele>2</ele>
      </trkpt>
      <trkpt lat="43.31875" lon="3.45986">
        <ele>1.8</ele>
      </trkpt>
      <trkpt lat="43.31895" lon="3.46106">
        <ele>2.6</ele>
      </trkpt>
      <trkpt lat="43.31916" lon="3.46225">
        <ele>3.1</ele>
      </trkpt>
      <trkpt lat="43.31937" lon="3.46345">
        <ele>4</ele>
        <time>2010-09-03T19:50:42Z</time>
      </trkpt>
      <trkpt lat="43.31955" lon="3.46459">
        <ele>2.9</ele>
      </trkpt>
      <trkpt lat="43.31972" lon="3.46573">
        <ele>3.6</ele>
      </trkpt>
      <trkpt lat="43.3199" lon="3.46687">
        <ele>4</ele>
        <time>2010-09-03T19:50:42Z</time>
      </trkpt>
      <trkpt lat="43.31965" lon="3.46711">
        <ele>4</ele>
        <time>2010-09-03T19:50:42Z</time>
      </trkpt>
      <trkpt lat="43.31909" lon="3.46748">
        <ele>3.9</ele>
      </trkpt>
      <trkpt lat="43.31853" lon="3.46785">
        <ele>2.9</ele>
      </trkpt>
      <trkpt lat="43.31797" lon="3.46822">
        <ele>5</ele>
        <time>2010-09-03T19:50:42Z</time>
      </trkpt>
      <trkpt lat="43.31768" lon="3.46833">
        <ele>4</ele>
        <time>2010-09-03T19:50:42Z</time>
      </trkpt>
      <trkpt lat="43.31739" lon="3.46833">
        <ele>6</ele>
        <time>2010-09-03T19:50:42Z</time>
      </trkpt>
      <trkpt lat="43.3171" lon="3.46838">
        <ele>11</ele>
        <time>2010-09-03T19:50:42Z</time>
      </trkpt>
      <trkpt lat="43.31683" lon="3.46848">
        <ele>11</ele>
        <time>2010-09-03T19:50:42Z</time>
      </trkpt>
      <trkpt lat="43.31656" lon="3.46857">
        <ele>2</ele>
        <time>2010-09-03T19:50:42Z</time>
      </trkpt>
      <trkpt lat="43.31625" lon="3.46868">
        <ele>1</ele>
        <time>2010-09-03T19:50:42Z</time>
      </trkpt>
      <trkpt lat="43.31598" lon="3.46879">
        <ele>-3</ele>
        <time>2010-09-03T19:50:42Z</time>
      </trkpt>
      <trkpt lat="43.31565" lon="3.46879">
        <ele>-1</ele>
        <time>2010-09-03T19:50:42Z</time>
      </trkpt>
      <trkpt lat="43.31518" lon="3.46896">
        <ele>4</ele>
        <time>2010-09-03T19:50:42Z</time>
      </trkpt>
      <trkpt lat="43.31493" lon="3.46952">
        <ele>6</ele>
        <time>2010-09-03T19:50:42Z</time>
      </trkpt>
      <trkpt lat="43.31457" lon="3.46981">
        <ele>7</ele>
        <time>2010-09-03T19:50:42Z</time>
      </trkpt>
      <trkpt lat="43.31433" lon="3.46957">
        <ele>11</ele>
        <time>2010-09-03T19:50:42Z</time>
      </trkpt>
      <trkpt lat="43.31387" lon="3.46931">
        <ele>11</ele>
        <time>2010-09-03T19:50:42Z</time>
      </trkpt>
      <trkpt lat="43.31356" lon="3.46879">
        <ele>10</ele>
        <time>2010-09-03T19:50:42Z</time>
      </trkpt>
      <trkpt lat="43.31328" lon="3.46829">
        <ele>23</ele>
        <time>2010-09-03T19:50:42Z</time>
      </trkpt>
      <trkpt lat="43.31295" lon="3.46826">
        <ele>29</ele>
        <time>2010-09-03T19:50:42Z</time>
      </trkpt>
      <trkpt lat="43.31269" lon="3.4689">
        <ele>10</ele>
        <time>2010-09-03T19:50:42Z</time>
      </trkpt>
      <trkpt lat="43.31244" lon="3.46959">
        <ele>2</ele>
        <time>2010-09-03T19:50:42Z</time>
      </trkpt>
      <trkpt lat="43.31229" lon="3.46996">
        <ele>9</ele>
        <time>2010-09-03T19:50:42Z</time>
      </trkpt>
      <trkpt lat="43.31222" lon="3.47042">
        <ele>2</ele>
        <time>2010-09-03T19:50:42Z</time>
      </trkpt>
      <trkpt lat="43.31178" lon="3.47063">
        <ele>3</ele>
        <time>2010-09-03T19:50:42Z</time>
      </trkpt>
      <trkpt lat="43.3115" lon="3.47062">
        <ele>9</ele>
        <time>2010-09-03T19:50:42Z</time>
      </trkpt>
      <trkpt lat="43.3112" lon="3.4706">
        <ele>14</ele>
        <time>2010-09-03T19:50:42Z</time>
      </trkpt>
      <trkpt lat="43.31095" lon="3.47011">
        <ele>10</ele>
        <time>2010-09-03T19:50:42Z</time>
      </trkpt>
      <trkpt lat="43.311" lon="3.46952">
        <ele>11</ele>
        <time>2010-09-03T19:50:42Z</time>
      </trkpt>
      <trkpt lat="43.31105" lon="3.46894">
        <ele>10</ele>
        <time>2010-09-03T19:50:42Z</time>
      </trkpt>
      <trkpt lat="43.31119" lon="3.46834">
        <ele>12</ele>
        <time>2010-09-03T19:50:42Z</time>
      </trkpt>
      <trkpt lat="43.31118" lon="3.46771">
        <ele>11</ele>
        <time>2010-09-03T19:50:42Z</time>
      </trkpt>
      <trkpt lat="43.3112" lon="3.46709">
        <ele>5</ele>
        <time>2010-09-03T19:50:42Z</time>
      </trkpt>
      <trkpt lat="43.31124" lon="3.46672">
        <ele>6</ele>
        <time>2010-09-03T19:50:42Z</time>
      </trkpt>
      <trkpt lat="43.31128" lon="3.46606">
        <ele>5</ele>
        <time>2010-09-03T19:50:42Z</time>
      </trkpt>
      <trkpt lat="43.311" lon="3.46594">
        <ele>5</ele>
        <time>2010-09-03T19:50:42Z</time>
      </trkpt>
      <trkpt lat="43.31071" lon="3.46585">
        <ele>6</ele>
        <time>2010-09-03T19:50:42Z</time>
      </trkpt>
      <trkpt lat="43.31042" lon="3.46577">
        <ele>8</ele>
        <time>2010-09-03T19:50:42Z</time>
      </trkpt>
      <trkpt lat="43.31014" lon="3.46568">
        <ele>8</ele>
        <time>2010-09-03T19:50:42Z</time>
      </trkpt>
      <trkpt lat="43.30986" lon="3.46561">
        <ele>7</ele>
        <time>2010-09-03T19:50:42Z</time>
      </trkpt>
      <trkpt lat="43.30957" lon="3.46555">
        <ele>5</ele>
        <time>2010-09-03T19:50:42Z</time>
      </trkpt>
      <trkpt lat="43.30927" lon="3.46553">
        <ele>3</ele>
        <time>2010-09-03T19:50:42Z</time>
      </trkpt>
      <trkpt lat="43.309" lon="3.4655">
        <ele>2</ele>
        <time>2010-09-03T19:50:42Z</time>
      </trkpt>
      <trkpt lat="43.30869" lon="3.46547">
        <ele>1</ele>
        <time>2010-09-03T19:50:42Z</time>
      </trkpt>
      <trkpt lat="43.30839" lon="3.46548">
        <ele>1</ele>
        <time>2010-09-03T19:50:42Z</time>
      </trkpt>
      <trkpt lat="43.30807" lon="3.4655">
        <ele>1</ele>
        <time>2010-09-03T19:50:42Z</time>
      </trkpt>
      <trkpt lat="43.30777" lon="3.46552">
        <ele>1</ele>
        <time>2010-09-03T19:50:42Z</time>
      </trkpt>
      <trkpt lat="43.30749" lon="3.46551">
        <ele>1</ele>
        <time>2010-09-03T19:50:42Z</time>
      </trkpt>
      <trkpt lat="43.30718" lon="3.46553">
        <ele>1</ele>
        <time>2010-09-03T19:50:42Z</time>
      </trkpt>
      <trkpt lat="43.30686" lon="3.46556">
        <ele>1</ele>
        <time>2010-09-03T19:50:42Z</time>
      </trkpt>
      <trkpt lat="43.30654" lon="3.46558">
        <ele>2</ele>
        <time>2010-09-03T19:50:42Z</time>
      </trkpt>
      <trkpt lat="43.30624" lon="3.46559">
        <ele>2</ele>
        <time>2010-09-03T19:50:42Z</time>
      </trkpt>
      <trkpt lat="43.30597" lon="3.4656">
        <ele>2</ele>
        <time>2010-09-03T19:50:42Z</time>
      </trkpt>
      <trkpt lat="43.30569" lon="3.4656">
        <ele>2</ele>
        <time>2010-09-03T19:50:42Z</time>
      </trkpt>
      <trkpt lat="43.30538" lon="3.46561">
        <ele>1</ele>
        <time>2010-09-03T19:50:42Z</time>
      </trkpt>
      <trkpt lat="43.30507" lon="3.46563">
        <ele>2</ele>
        <time>2010-09-03T19:50:42Z</time>
      </trkpt>
      <trkpt lat="43.30479" lon="3.46563">
        <ele>1</ele>
        <time>2010-09-03T19:50:42Z</time>
      </trkpt>
      <trkpt lat="43.30447" lon="3.46559">
        <ele>1</ele>
        <time>2010-09-03T19:50:42Z</time>
      </trkpt>
      <trkpt lat="43.30417" lon="3.46551">
        <ele>-1</ele>
        <time>2010-09-03T19:50:42Z</time>
      </trkpt>
      <trkpt lat="43.30388" lon="3.46542">
        <ele>-2</ele>
        <time>2010-09-03T19:50:42Z</time>
      </trkpt>
      <trkpt lat="43.30361" lon="3.46534">
        <ele>-2</ele>
        <time>2010-09-03T19:50:42Z</time>
      </trkpt>
      <trkpt lat="43.30334" lon="3.46525">
        <ele>-3</ele>
        <time>2010-09-03T19:50:42Z</time>
      </trkpt>
      <trkpt lat="43.30306" lon="3.46516">
        <ele>-2</ele>
        <time>2010-09-03T19:50:42Z</time>
      </trkpt>
      <trkpt lat="43.30254" lon="3.46499">
        <ele>-3</ele>
        <time>2010-09-03T19:50:42Z</time>
      </trkpt>
      <trkpt lat="43.30202" lon="3.46482">
        <ele>-5</ele>
        <time>2010-09-03T19:50:42Z</time>
      </trkpt>
      <trkpt lat="43.30173" lon="3.46472">
        <ele>-6</ele>
        <time>2010-09-03T19:50:42Z</time>
      </trkpt>
      <trkpt lat="43.30143" lon="3.46462">
        <ele>-6</ele>
        <time>2010-09-03T19:50:42Z</time>
      </trkpt>
      <trkpt lat="43.30112" lon="3.46456">
        <ele>-3</ele>
        <time>2010-09-03T19:50:42Z</time>
      </trkpt>
      <trkpt lat="43.30084" lon="3.46452">
        <ele>-2</ele>
        <time>2010-09-03T19:50:42Z</time>
      </trkpt>
      <trkpt lat="43.30033" lon="3.46424">
        <ele>2</ele>
        <time>2010-09-03T19:50:42Z</time>
      </trkpt>
      <trkpt lat="43.29992" lon="3.46382">
        <ele>2</ele>
        <time>2010-09-03T19:50:42Z</time>
      </trkpt>
      <trkpt lat="43.29967" lon="3.46324">
        <ele>3</ele>
        <time>2010-09-03T19:50:42Z</time>
      </trkpt>
      <trkpt lat="43.29943" lon="3.46265">
        <ele>4</ele>
        <time>2010-09-03T19:50:42Z</time>
      </trkpt>
      <trkpt lat="43.29921" lon="3.46209">
        <ele>3</ele>
        <time>2010-09-03T19:50:42Z</time>
      </trkpt>
      <trkpt lat="43.29904" lon="3.46141">
        <ele>-3</ele>
        <time>2010-09-03T19:50:42Z</time>
      </trkpt>
      <trkpt lat="43.29898" lon="3.46072">
        <ele>-6</ele>
        <time>2010-09-03T19:50:42Z</time>
      </trkpt>
      <trkpt lat="43.29895" lon="3.46006">
        <ele>-7</ele>
        <time>2010-09-03T19:50:42Z</time>
      </trkpt>
      <trkpt lat="43.29891" lon="3.45942">
        <ele>-5</ele>
        <time>2010-09-03T19:50:42Z</time>
      </trkpt>
      <trkpt lat="43.29885" lon="3.45883">
        <ele>-5</ele>
        <time>2010-09-03T19:50:42Z</time>
      </trkpt>
      <trkpt lat="43.29873" lon="3.45822">
        <ele>-7</ele>
        <time>2010-09-03T19:50:42Z</time>
      </trkpt>
      <trkpt lat="43.29861" lon="3.45767">
        <ele>-6</ele>
        <time>2010-09-03T19:50:42Z</time>
      </trkpt>
      <trkpt lat="43.29847" lon="3.45712">
        <ele>-4</ele>
        <time>2010-09-03T19:50:42Z</time>
      </trkpt>
      <trkpt lat="43.2983" lon="3.45658">
        <ele>-1</ele>
        <time>2010-09-03T19:50:42Z</time>
      </trkpt>
      <trkpt lat="43.29811" lon="3.45605">
        <ele>-1</ele>
        <time>2010-09-03T19:50:42Z</time>
      </trkpt>
      <trkpt lat="43.2979" lon="3.45552">
        <ele>1</ele>
        <time>2010-09-03T19:50:42Z</time>
      </trkpt>
      <trkpt lat="43.29766" lon="3.45495">
        <ele>1</ele>
        <time>2010-09-03T19:50:42Z</time>
      </trkpt>
      <trkpt lat="43.29742" lon="3.45437">
        <ele>1</ele>
        <time>2010-09-03T19:50:42Z</time>
      </trkpt>
      <trkpt lat="43.29718" lon="3.45381">
        <ele>1</ele>
        <time>2010-09-03T19:50:42Z</time>
      </trkpt>
      <trkpt lat="43.2969" lon="3.4533">
        <ele>1</ele>
        <time>2010-09-03T19:50:42Z</time>
      </trkpt>
      <trkpt lat="43.29658" lon="3.45277">
        <ele>1</ele>
        <time>2010-09-03T19:50:42Z</time>
      </trkpt>
      <trkpt lat="43.29626" lon="3.45224">
        <ele>1</ele>
        <time>2010-09-03T19:50:42Z</time>
      </trkpt>
      <trkpt lat="43.29593" lon="3.45173">
        <ele>1</ele>
        <time>2010-09-03T19:50:42Z</time>
      </trkpt>
      <trkpt lat="43.29561" lon="3.45123">
        <ele>1.6</ele>
        <time>2010-09-03T19:50:42Z</time>
      </trkpt>
      <trkpt lat="43.29527" lon="3.45077">
        <ele>1.7</ele>
        <time>2010-09-03T19:50:42Z</time>
      </trkpt>
      <trkpt lat="43.29486" lon="3.45036">
        <ele>-1</ele>
        <time>2010-09-03T19:50:42Z</time>
      </trkpt>
      <trkpt lat="43.29447" lon="3.44996">
        <ele>-2</ele>
        <time>2010-09-03T19:50:42Z</time>
      </trkpt>
      <trkpt lat="43.29425" lon="3.44975">
        <ele>-2</ele>
        <time>2010-09-03T19:50:42Z</time>
      </trkpt>
      <trkpt lat="43.29403" lon="3.44953">
        <ele>-2</ele>
        <time>2010-09-03T19:50:42Z</time>
      </trkpt>
      <trkpt lat="43.29362" lon="3.44912">
        <ele>-2</ele>
        <time>2010-09-03T19:50:42Z</time>
      </trkpt>
      <trkpt lat="43.2934" lon="3.44889">
        <ele>-2</ele>
        <time>2010-09-03T19:50:42Z</time>
      </trkpt>
      <trkpt lat="43.29317" lon="3.44867">
        <ele>-2</ele>
        <time>2010-09-03T19:50:42Z</time>
      </trkpt>
      <trkpt lat="43.29295" lon="3.44846">
        <ele>-1</ele>
        <time>2010-09-03T19:50:42Z</time>
      </trkpt>
      <trkpt lat="43.29253" lon="3.44806">
        <ele>-1</ele>
        <time>2010-09-03T19:50:42Z</time>
      </trkpt>
      <trkpt lat="43.29231" lon="3.44784">
        <ele>1.3</ele>
        <time>2010-09-03T19:50:42Z</time>
      </trkpt>
      <trkpt lat="43.29209" lon="3.44762">
        <ele>1.3</ele>
        <time>2010-09-03T19:50:42Z</time>
      </trkpt>
      <trkpt lat="43.29166" lon="3.44721">
        <ele>1</ele>
        <time>2010-09-03T19:50:42Z</time>
      </trkpt>
      <trkpt lat="43.29143" lon="3.44702">
        <ele>1.1</ele>
        <time>2010-09-03T19:50:42Z</time>
      </trkpt>
      <trkpt lat="43.2912" lon="3.44681">
        <ele>1.5</ele>
        <time>2010-09-03T19:50:42Z</time>
      </trkpt>
      <trkpt lat="43.29077" lon="3.4464">
        <ele>1.7</ele>
        <time>2010-09-03T19:50:42Z</time>
      </trkpt>
      <trkpt lat="43.29055" lon="3.44619">
        <ele>1.7</ele>
        <time>2010-09-03T19:50:42Z</time>
      </trkpt>
      <trkpt lat="43.29032" lon="3.44596">
        <ele>1.6</ele>
        <time>2010-09-03T19:50:42Z</time>
      </trkpt>
      <trkpt lat="43.29007" lon="3.44575">
        <ele>1</ele>
        <time>2010-09-03T19:50:42Z</time>
      </trkpt>
      <trkpt lat="43.28982" lon="3.44556">
        <ele>1</ele>
        <time>2010-09-03T19:50:42Z</time>
      </trkpt>
      <trkpt lat="43.28956" lon="3.44539">
        <ele>2</ele>
        <time>2010-09-03T19:50:42Z</time>
      </trkpt>
      <trkpt lat="43.2893" lon="3.44521">
        <ele>2</ele>
        <time>2010-09-03T19:50:42Z</time>
      </trkpt>
      <trkpt lat="43.28903" lon="3.44512">
        <ele>3</ele>
        <time>2010-09-03T19:50:42Z</time>
      </trkpt>
      <trkpt lat="43.28875" lon="3.4451">
        <ele>3</ele>
        <time>2010-09-03T19:50:42Z</time>
      </trkpt>
      <trkpt lat="43.28846" lon="3.44508">
        <ele>4</ele>
        <time>2010-09-03T19:50:42Z</time>
      </trkpt>
      <trkpt lat="43.28816" lon="3.44507">
        <ele>4</ele>
        <time>2010-09-03T19:50:42Z</time>
      </trkpt>
      <trkpt lat="43.28787" lon="3.44504">
        <ele>4</ele>
        <time>2010-09-03T19:50:42Z</time>
      </trkpt>
      <trkpt lat="43.28759" lon="3.44502">
        <ele>4</ele>
        <time>2010-09-03T19:50:42Z</time>
      </trkpt>
      <trkpt lat="43.2873" lon="3.44501">
        <ele>3</ele>
        <time>2010-09-03T19:50:42Z</time>
      </trkpt>
      <trkpt lat="43.28701" lon="3.445">
        <ele>3</ele>
        <time>2010-09-03T19:50:42Z</time>
      </trkpt>
      <trkpt lat="43.2867" lon="3.44502">
        <ele>3</ele>
        <time>2010-09-03T19:50:42Z</time>
      </trkpt>
      <trkpt lat="43.28642" lon="3.445">
        <ele>2</ele>
        <time>2010-09-03T19:50:42Z</time>
      </trkpt>
      <trkpt lat="43.28585" lon="3.44496">
        <ele>1</ele>
        <time>2010-09-03T19:50:42Z</time>
      </trkpt>
      <trkpt lat="43.28531" lon="3.44494">
        <ele>-6</ele>
        <time>2010-09-03T19:50:42Z</time>
      </trkpt>
      <trkpt lat="43.28499" lon="3.44492">
        <ele>-7</ele>
        <time>2010-09-03T19:50:42Z</time>
      </trkpt>
      <trkpt lat="43.28487" lon="3.44533">
        <ele>1</ele>
        <time>2010-09-03T19:50:42Z</time>
      </trkpt>
      <trkpt lat="43.28481" lon="3.4459">
        <ele>5</ele>
        <time>2010-09-03T19:50:42Z</time>
      </trkpt>
      <trkpt lat="43.28437" lon="3.44601">
        <ele>2</ele>
        <time>2010-09-03T19:50:42Z</time>
      </trkpt>
      <trkpt lat="43.28413" lon="3.44654">
        <ele>-3</ele>
        <time>2010-09-03T19:50:42Z</time>
      </trkpt>
      <trkpt lat="43.28393" lon="3.44713">
        <ele>2</ele>
        <time>2010-09-03T19:50:42Z</time>
      </trkpt>
      <trkpt lat="43.28375" lon="3.44772">
        <ele>4</ele>
        <time>2010-09-03T19:50:42Z</time>
      </trkpt>
      <trkpt lat="43.28354" lon="3.44828">
        <ele>6</ele>
        <time>2010-09-03T19:50:42Z</time>
      </trkpt>
      <trkpt lat="43.28332" lon="3.44884">
        <ele>6</ele>
        <time>2010-09-03T19:50:42Z</time>
      </trkpt>
      <trkpt lat="43.2832" lon="3.44945">
        <ele>1</ele>
        <time>2010-09-03T19:50:42Z</time>
      </trkpt>
      <trkpt lat="43.28312" lon="3.45008">
        <ele>1</ele>
        <time>2010-09-03T19:50:42Z</time>
      </trkpt>
      <trkpt lat="43.28303" lon="3.45069">
        <ele>2</ele>
        <time>2010-09-03T19:50:42Z</time>
      </trkpt>
      <trkpt lat="43.28289" lon="3.45124">
        <ele>4</ele>
        <time>2010-09-03T19:50:42Z</time>
      </trkpt>
      <trkpt lat="43.28274" lon="3.45178">
        <ele>4</ele>
        <time>2010-09-03T19:50:42Z</time>
      </trkpt>
      <trkpt lat="43.28268" lon="3.45234">
        <ele>4</ele>
        <time>2010-09-03T19:50:42Z</time>
      </trkpt>
      <trkpt lat="43.28261" lon="3.45297">
        <ele>4</ele>
        <time>2010-09-03T19:50:42Z</time>
      </trkpt>
      <trkpt lat="43.2826" lon="3.45356">
        <ele>1</ele>
        <time>2010-09-03T19:50:42Z</time>
      </trkpt>
      <trkpt lat="43.28319" lon="3.45362">
        <ele>-1</ele>
        <time>2010-09-03T19:50:42Z</time>
      </trkpt>
      <trkpt lat="43.28373" lon="3.45363">
        <ele>1</ele>
        <time>2010-09-03T19:50:42Z</time>
      </trkpt>
      <trkpt lat="43.284" lon="3.45371">
        <ele>1.3</ele>
        <time>2010-09-03T19:50:42Z</time>
      </trkpt>
      <trkpt lat="43.28382" lon="3.45433">
        <ele>-2</ele>
        <time>2010-09-03T19:50:42Z</time>
      </trkpt>
      <trkpt lat="43.28355" lon="3.4549">
        <ele>2</ele>
        <time>2010-09-03T19:50:42Z</time>
      </trkpt>
      <trkpt lat="43.28321" lon="3.45539">
        <ele>-1</ele>
        <time>2010-09-03T19:50:42Z</time>
      </trkpt>
      <trkpt lat="43.28296" lon="3.45554">
        <ele>-3</ele>
        <time>2010-09-03T19:50:42Z</time>
      </trkpt>
      <trkpt lat="43.28274" lon="3.45576">
        <ele>-3</ele>
        <time>2010-09-03T19:50:42Z</time>
      </trkpt>
      <trkpt lat="43.28236" lon="3.45623">
        <ele>-1</ele>
        <time>2010-09-03T19:50:42Z</time>
      </trkpt>
      <trkpt lat="43.28214" lon="3.45682">
        <ele>1</ele>
        <time>2010-09-03T19:50:42Z</time>
      </trkpt>
      <trkpt lat="43.28187" lon="3.45734">
        <ele>1</ele>
        <time>2010-09-03T19:50:42Z</time>
      </trkpt>
      <trkpt lat="43.28162" lon="3.45789">
        <ele>3</ele>
        <time>2010-09-03T19:50:42Z</time>
      </trkpt>
      <trkpt lat="43.28142" lon="3.45847">
        <ele>1</ele>
        <time>2010-09-03T19:50:42Z</time>
      </trkpt>
      <trkpt lat="43.28116" lon="3.45912">
        <ele>1</ele>
        <time>2010-09-03T19:50:42Z</time>
      </trkpt>
      <trkpt lat="43.2809" lon="3.45974">
        <ele>3</ele>
        <time>2010-09-03T19:50:42Z</time>
      </trkpt>
      <trkpt lat="43.28064" lon="3.46038">
        <ele>1</ele>
        <time>2010-09-03T19:50:42Z</time>
      </trkpt>
      <trkpt lat="43.28043" lon="3.461">
        <ele>2</ele>
        <time>2010-09-03T19:50:42Z</time>
      </trkpt>
      <trkpt lat="43.28024" lon="3.46162">
        <ele>2.3</ele>
        <time>2010-09-03T19:50:42Z</time>
      </trkpt>
      <trkpt lat="43.28003" lon="3.4622">
        <ele>1</ele>
        <time>2010-09-03T19:50:42Z</time>
      </trkpt>
      <trkpt lat="43.27982" lon="3.46274">
        <ele>1</ele>
        <time>2010-09-03T19:50:42Z</time>
      </trkpt>
      <trkpt lat="43.2796" lon="3.46329">
        <ele>1</ele>
        <time>2010-09-03T19:50:42Z</time>
      </trkpt>
      <trkpt lat="43.27931" lon="3.46389">
        <ele>-1</ele>
        <time>2010-09-03T19:50:42Z</time>
      </trkpt>
      <trkpt lat="43.27895" lon="3.46441">
        <ele>-1</ele>
        <time>2010-09-03T19:50:42Z</time>
      </trkpt>
      <trkpt lat="43.27855" lon="3.46486">
        <ele>-1</ele>
        <time>2010-09-03T19:50:42Z</time>
      </trkpt>
      <trkpt lat="43.27829" lon="3.46539">
        <ele>-3</ele>
        <time>2010-09-03T19:50:42Z</time>
      </trkpt>
      <trkpt lat="43.27805" lon="3.46598">
        <ele>-1</ele>
        <time>2010-09-03T19:50:42Z</time>
      </trkpt>
      <trkpt lat="43.27794" lon="3.46663">
        <ele>1</ele>
        <time>2010-09-03T19:50:42Z</time>
      </trkpt>
      <trkpt lat="43.27778" lon="3.46725">
        <ele>2</ele>
        <time>2010-09-03T19:50:42Z</time>
      </trkpt>
      <trkpt lat="43.27755" lon="3.46786">
        <ele>2</ele>
        <time>2010-09-03T19:50:42Z</time>
      </trkpt>
      <trkpt lat="43.27729" lon="3.46845">
        <ele>2</ele>
        <time>2010-09-03T19:50:42Z</time>
      </trkpt>
      <trkpt lat="43.27722" lon="3.46913">
        <ele>-1</ele>
        <time>2010-09-03T19:50:42Z</time>
      </trkpt>
      <trkpt lat="43.27719" lon="3.4698">
        <ele>1</ele>
        <time>2010-09-03T19:50:42Z</time>
      </trkpt>
      <trkpt lat="43.27731" lon="3.47041">
        <ele>3</ele>
        <time>2010-09-03T19:50:42Z</time>
      </trkpt>
      <trkpt lat="43.27749" lon="3.47097">
        <ele>3</ele>
        <time>2010-09-03T19:50:42Z</time>
      </trkpt>
      <trkpt lat="43.27792" lon="3.47136">
        <ele>1</ele>
        <time>2010-09-03T19:50:42Z</time>
      </trkpt>
      <trkpt lat="43.27836" lon="3.47176">
        <ele>-2</ele>
        <time>2010-09-03T19:50:42Z</time>
      </trkpt>
      <trkpt lat="43.27884" lon="3.47217">
        <ele>1</ele>
        <time>2010-09-03T19:50:42Z</time>
      </trkpt>
      <trkpt lat="43.27959" lon="3.47309">
        <ele>-10</ele>
        <time>2010-09-03T19:50:42Z</time>
      </trkpt>
      <trkpt lat="43.27985" lon="3.47323">
        <ele>-9</ele>
        <time>2010-09-03T19:50:42Z</time>
      </trkpt>
      <trkpt lat="43.28013" lon="3.47339">
        <ele>-10</ele>
        <time>2010-09-03T19:50:42Z</time>
      </trkpt>
      <trkpt lat="43.28069" lon="3.47358">
        <ele>-10</ele>
        <time>2010-09-03T19:50:42Z</time>
      </trkpt>
      <trkpt lat="43.28098" lon="3.47372">
        <ele>-8</ele>
        <time>2010-09-03T19:50:42Z</time>
      </trkpt>
      <trkpt lat="43.28126" lon="3.47381">
        <ele>-2</ele>
        <time>2010-09-03T19:50:42Z</time>
      </trkpt>
      <trkpt lat="43.28155" lon="3.47387">
        <ele>5</ele>
        <time>2010-09-03T19:50:42Z</time>
      </trkpt>
      <trkpt lat="43.28211" lon="3.47403">
        <ele>5</ele>
        <time>2010-09-03T19:50:42Z</time>
      </trkpt>
      <trkpt lat="43.28245" lon="3.47366">
        <ele>2</ele>
        <time>2010-09-03T19:50:42Z</time>
      </trkpt>
      <trkpt lat="43.28275" lon="3.47362">
        <ele>2</ele>
        <time>2010-09-03T19:50:42Z</time>
      </trkpt>
      <trkpt lat="43.28306" lon="3.47361">
        <ele>4</ele>
        <time>2010-09-03T19:50:42Z</time>
      </trkpt>
      <trkpt lat="43.28352" lon="3.47386">
        <ele>3</ele>
        <time>2010-09-03T19:50:42Z</time>
      </trkpt>
      <trkpt lat="43.28378" lon="3.47399">
        <ele>3</ele>
        <time>2010-09-03T19:50:42Z</time>
      </trkpt>
      <trkpt lat="43.28405" lon="3.47406">
        <ele>5</ele>
        <time>2010-09-03T19:50:42Z</time>
      </trkpt>
      <trkpt lat="43.28438" lon="3.47411">
        <ele>12</ele>
        <time>2010-09-03T19:50:42Z</time>
      </trkpt>
      <trkpt lat="43.28478" lon="3.47451">
        <ele>15</ele>
        <time>2010-09-03T19:50:42Z</time>
      </trkpt>
      <trkpt lat="43.28486" lon="3.47503">
        <ele>10</ele>
        <time>2010-09-03T19:50:42Z</time>
      </trkpt>
      <trkpt lat="43.2845" lon="3.47546">
        <ele>9</ele>
        <time>2010-09-03T19:50:42Z</time>
      </trkpt>
      <trkpt lat="43.28406" lon="3.47584">
        <ele>7</ele>
        <time>2010-09-03T19:50:42Z</time>
      </trkpt>
      <trkpt lat="43.28363" lon="3.47624">
        <ele>5</ele>
        <time>2010-09-03T19:50:42Z</time>
      </trkpt>
      <trkpt lat="43.28335" lon="3.47636">
        <ele>3</ele>
        <time>2010-09-03T19:50:42Z</time>
      </trkpt>
      <trkpt lat="43.2831" lon="3.47652">
        <ele>2</ele>
        <time>2010-09-03T19:50:42Z</time>
      </trkpt>
      <trkpt lat="43.28265" lon="3.47698">
        <ele>1</ele>
        <time>2010-09-03T19:50:42Z</time>
      </trkpt>
      <trkpt lat="43.28239" lon="3.47707">
        <ele>1</ele>
        <time>2010-09-03T19:50:42Z</time>
      </trkpt>
      <trkpt lat="43.28211" lon="3.47758">
        <ele>1</ele>
        <time>2010-09-03T19:50:42Z</time>
      </trkpt>
      <trkpt lat="43.28188" lon="3.47817">
        <ele>1</ele>
        <time>2010-09-03T19:50:42Z</time>
      </trkpt>
      <trkpt lat="43.28167" lon="3.47878">
        <ele>3</ele>
        <time>2010-09-03T19:50:42Z</time>
      </trkpt>
      <trkpt lat="43.28154" lon="3.47936">
        <ele>3</ele>
        <time>2010-09-03T19:50:42Z</time>
      </trkpt>
      <trkpt lat="43.28131" lon="3.47994">
        <ele>3</ele>
        <time>2010-09-03T19:50:42Z</time>
      </trkpt>
      <trkpt lat="43.28105" lon="3.48054">
        <ele>3</ele>
        <time>2010-09-03T19:50:42Z</time>
      </trkpt>
      <trkpt lat="43.28079" lon="3.48116">
        <ele>4</ele>
        <time>2010-09-03T19:50:42Z</time>
      </trkpt>
      <trkpt lat="43.28067" lon="3.48151">
        <ele>5</ele>
        <time>2010-09-03T19:50:42Z</time>
      </trkpt>
      <trkpt lat="43.28055" lon="3.482">
        <ele>3</ele>
        <time>2010-09-03T19:50:42Z</time>
      </trkpt>
      <trkpt lat="43.28034" lon="3.48259">
        <ele>3</ele>
        <time>2010-09-03T19:50:42Z</time>
      </trkpt>
      <trkpt lat="43.2801" lon="3.48318">
        <ele>3</ele>
        <time>2010-09-03T19:50:42Z</time>
      </trkpt>
      <trkpt lat="43.27989" lon="3.4838">
        <ele>2</ele>
        <time>2010-09-03T19:50:42Z</time>
      </trkpt>
      <trkpt lat="43.27967" lon="3.48441">
        <ele>2</ele>
        <time>2010-09-03T19:50:42Z</time>
      </trkpt>
      <trkpt lat="43.27941" lon="3.48501">
        <ele>2</ele>
        <time>2010-09-03T19:50:42Z</time>
      </trkpt>
      <trkpt lat="43.27928" lon="3.48536">
        <ele>3</ele>
        <time>2010-09-03T19:50:42Z</time>
      </trkpt>
      <trkpt lat="43.27905" lon="3.48594">
        <ele>2</ele>
        <time>2010-09-03T19:50:42Z</time>
      </trkpt>
      <trkpt lat="43.27882" lon="3.48648">
        <ele>1</ele>
        <time>2010-09-03T19:50:42Z</time>
      </trkpt>
      <trkpt lat="43.27858" lon="3.487">
        <ele>4</ele>
        <time>2010-09-03T19:50:42Z</time>
      </trkpt>
      <trkpt lat="43.2784" lon="3.48756">
        <ele>5</ele>
        <time>2010-09-03T19:50:42Z</time>
      </trkpt>
      <trkpt lat="43.27819" lon="3.4882">
        <ele>6</ele>
        <time>2010-09-03T19:50:42Z</time>
      </trkpt>
      <trkpt lat="43.2781" lon="3.48874">
        <ele>1</ele>
        <time>2010-09-03T19:50:42Z</time>
      </trkpt>
      <trkpt lat="43.27827" lon="3.48926">
        <ele>5</ele>
        <time>2010-09-03T19:50:42Z</time>
      </trkpt>
      <trkpt lat="43.27859" lon="3.4898">
        <ele>2</ele>
        <time>2010-09-03T19:50:42Z</time>
      </trkpt>
      <trkpt lat="43.27894" lon="3.49026">
        <ele>1</ele>
        <time>2010-09-03T19:50:42Z</time>
      </trkpt>
      <trkpt lat="43.2793" lon="3.49071">
        <ele>2</ele>
        <time>2010-09-03T19:50:42Z</time>
      </trkpt>
      <trkpt lat="43.27964" lon="3.49123">
        <ele>3</ele>
        <time>2010-09-03T19:50:42Z</time>
      </trkpt>
      <trkpt lat="43.27992" lon="3.49179">
        <ele>3</ele>
        <time>2010-09-03T19:50:42Z</time>
      </trkpt>
      <trkpt lat="43.28007" lon="3.4924">
        <ele>2</ele>
        <time>2010-09-03T19:50:42Z</time>
      </trkpt>
      <trkpt lat="43.28041" lon="3.49289">
        <ele>3</ele>
        <time>2010-09-03T19:50:42Z</time>
      </trkpt>
      <trkpt lat="43.28087" lon="3.49325">
        <ele>-3</ele>
        <time>2010-09-03T19:50:42Z</time>
      </trkpt>
      <trkpt lat="43.28125" lon="3.49379">
        <ele>-4</ele>
        <time>2010-09-03T19:50:42Z</time>
      </trkpt>
      <trkpt lat="43.28155" lon="3.49434">
        <ele>-3</ele>
        <time>2010-09-03T19:50:42Z</time>
      </trkpt>
      <trkpt lat="43.28171" lon="3.49465">
        <ele>-3</ele>
        <time>2010-09-03T19:50:42Z</time>
      </trkpt>
      <trkpt lat="43.28187" lon="3.49497">
        <ele>-2</ele>
        <time>2010-09-03T19:50:42Z</time>
      </trkpt>
      <trkpt lat="43.28203" lon="3.49529">
        <ele>-2</ele>
        <time>2010-09-03T19:50:42Z</time>
      </trkpt>
      <trkpt lat="43.28218" lon="3.49561">
        <ele>-1</ele>
        <time>2010-09-03T19:50:42Z</time>
      </trkpt>
      <trkpt lat="43.28232" lon="3.49593">
        <ele>-1</ele>
        <time>2010-09-03T19:50:42Z</time>
      </trkpt>
      <trkpt lat="43.28246" lon="3.49625">
        <ele>-1</ele>
        <time>2010-09-03T19:50:42Z</time>
      </trkpt>
      <trkpt lat="43.28264" lon="3.4969">
        <ele>-2</ele>
        <time>2010-09-03T19:50:42Z</time>
      </trkpt>
      <trkpt lat="43.28269" lon="3.49751">
        <ele>-2</ele>
        <time>2010-09-03T19:50:42Z</time>
      </trkpt>
      <trkpt lat="43.28233" lon="3.49803">
        <ele>2.4</ele>
        <time>2010-09-03T19:50:42Z</time>
      </trkpt>
      <trkpt lat="43.28222" lon="3.4986">
        <ele>1</ele>
        <time>2010-09-03T19:50:42Z</time>
      </trkpt>
      <trkpt lat="43.28268" lon="3.49893">
        <ele>2</ele>
        <time>2010-09-03T19:50:42Z</time>
      </trkpt>
      <trkpt lat="43.28295" lon="3.49879">
        <ele>-2</ele>
        <time>2010-09-03T19:50:42Z</time>
      </trkpt>
      <trkpt lat="43.28323" lon="3.49828">
        <ele>-4</ele>
        <time>2010-09-03T19:50:42Z</time>
      </trkpt>
      <trkpt lat="43.28346" lon="3.49774">
        <ele>-4</ele>
        <time>2010-09-03T19:50:42Z</time>
      </trkpt>
      <trkpt lat="43.28374" lon="3.49773">
        <ele>-3</ele>
        <time>2010-09-03T19:50:42Z</time>
      </trkpt>
      <trkpt lat="43.28398" lon="3.4979">
        <ele>-2</ele>
        <time>2010-09-03T19:50:42Z</time>
      </trkpt>
      <trkpt lat="43.28425" lon="3.49806">
        <ele>-1</ele>
        <time>2010-09-03T19:50:42Z</time>
      </trkpt>
      <trkpt lat="43.2845" lon="3.49824">
        <ele>-1</ele>
        <time>2010-09-03T19:50:42Z</time>
      </trkpt>
      <trkpt lat="43.28495" lon="3.49857">
        <ele>4</ele>
        <time>2010-09-03T19:50:42Z</time>
      </trkpt>
      <trkpt lat="43.28542" lon="3.49893">
        <ele>8</ele>
        <time>2010-09-03T19:50:42Z</time>
      </trkpt>
      <trkpt lat="43.28549" lon="3.49944">
        <ele>11</ele>
        <time>2010-09-03T19:50:42Z</time>
      </trkpt>
      <trkpt lat="43.28544" lon="3.49974">
        <ele>11</ele>
        <time>2010-09-03T19:50:42Z</time>
      </trkpt>
    </trkseg>
  </trk>
</gpx>